M I D A S
Marine Information and Data Acquisition System
Tripno 1543 of the Zeeleeuw from 2008-08-25 07:15:02 to 2008-08-25 13:13:50
Back to CruiseResearch ActivitiesStationsMapUnderway DataData graphs

EquipmentUnitsComment
TimeDGPSUTC
LatitudeDGPSDM.mWGS84
LongitudeDGPSDM.mWGS84
TemperatureSBE03/SBE38deg celciusITS90
ConductivitySBE21S/mITS90
SalinitySBE21 Practical Salinity Units
ChlorophylAChelsea fluorimeterg/lCalibrated in Aceton
Missing or incorrect values are displayed as -999
Sea surface data collected by the RV Zeeleeuw from 2008-08-25 07:15:39 to 2008-08-25 13:24:30
                                                                                    Next 1000 lines
Time Latitude Longitude Temperature Conductivity Salinity ChlorophylA
2008-08-25 07:15:49 51°13.624 2°56.046 19.3217 0.059702 0.332369 -1.279161
2008-08-25 07:15:54 51°13.624 2°56.044 19.3365 0.059702 0.332369 -1.279161
2008-08-25 07:15:59 51°13.625 2°56.042 19.3483 0.059702 0.332375 -1.279161
2008-08-25 07:16:04 51°13.626 2°56.039 19.342 0.059702 0.332375 -1.279161
2008-08-25 07:16:09 51°13.626 2°56.036 19.3398 0.059702 0.332375 -1.279161
2008-08-25 07:16:14 51°13.628 2°56.032 19.3497 0.059702 0.332381 -1.279161
2008-08-25 07:16:19 51°13.629 2°56.027 19.3463 0.059702 0.332381 -1.279161
2008-08-25 07:16:24 51°13.63 2°56.022 19.3346 0.059702 0.332387 -1.279161
2008-08-25 07:16:29 51°13.631 2°56.016 19.3503 0.059702 0.332387 -1.279161
2008-08-25 07:16:34 51°13.633 2°56.009 19.3437 0.059702 0.332393 -1.279161
2008-08-25 07:16:39 51°13.635 2°56.002 19.3437 0.059702 0.332393 -1.279161
2008-08-25 07:16:44 51°13.637 2°55.995 19.3443 0.059702 0.332393 -1.279161
2008-08-25 07:16:49 51°13.639 2°55.987 19.3565 0.059702 0.332399 -1.279161
2008-08-25 07:16:54 51°13.641 2°55.979 19.3486 0.059702 0.332399 -1.279161
2008-08-25 07:16:59 51°13.643 2°55.97 19.3469 0.059599 0.331809 -1.279161
2008-08-25 07:17:04 51°13.645 2°55.962 19.3457 0.059702 0.332405 -1.279161
2008-08-25 07:17:09 51°13.647 2°55.953 19.3503 0.059702 0.332405 -1.279161
2008-08-25 07:17:14 51°13.65 2°55.944 19.3497 0.059702 0.332405 -1.279161
2008-08-25 07:17:19 51°13.652 2°55.934 19.3573 0.059702 0.332405 -1.279161
2008-08-25 07:17:24 51°13.654 2°55.924 19.3508 0.059702 0.332411 -1.279161
2008-08-25 07:17:29 51°13.656 2°55.915 19.3537 0.059702 0.332411 -1.279161
2008-08-25 07:17:34 51°13.659 2°55.905 19.3621 0.059702 0.332417 -1.279161
2008-08-25 07:17:39 51°13.661 2°55.896 19.3631 0.059702 0.332417 -1.279161
2008-08-25 07:17:44 51°13.664 2°55.886 19.3628 0.059599 0.331827 -1.279161
2008-08-25 07:17:49 51°13.666 2°55.877 19.3615 0.059702 0.332423 -1.279161
2008-08-25 07:17:54 51°13.668 2°55.868 19.3625 0.059702 0.332423 -1.279161
2008-08-25 07:17:59 51°13.671 2°55.859 19.3617 0.059702 0.332423 -1.279161
2008-08-25 07:18:04 51°13.673 2°55.85 19.3599 0.059702 0.332429 -1.279161
2008-08-25 07:18:09 51°13.675 2°55.842 19.3605 0.059702 0.332429 -1.279161
2008-08-25 07:18:14 51°13.676 2°55.833 19.3612 0.059702 0.332435 -1.279161
2008-08-25 07:18:19 51°13.678 2°55.825 19.358 0.059702 0.332435 -1.279161
2008-08-25 07:18:24 51°13.68 2°55.818 19.362 0.059599 0.331851 -1.279161
2008-08-25 07:18:29 51°13.681 2°55.81 19.3631 0.059599 0.331851 -1.279161
2008-08-25 07:18:34 51°13.682 2°55.803 19.3654 0.059599 0.331851 -1.279161
2008-08-25 07:18:39 51°13.684 2°55.797 19.3602 0.059599 0.331851 -1.279161
2008-08-25 07:18:44 51°13.685 2°55.79 19.3549 0.059599 0.331857 -1.279161
2008-08-25 07:18:49 51°13.686 2°55.784 19.3579 0.059599 0.331857 -1.279161
2008-08-25 07:18:54 51°13.687 2°55.779 19.3615 0.059599 0.331857 -1.279161
2008-08-25 07:18:59 51°13.687 2°55.774 19.3607 0.059599 0.331863 -1.279161
2008-08-25 07:19:04 51°13.688 2°55.77 19.3619 0.059599 0.331863 -1.279161
2008-08-25 07:19:08 51°13.689 2°55.767 19.3612 0.059599 0.331863 -1.279161
2008-08-25 07:19:13 51°13.689 2°55.765 19.3626 0.059599 0.331863 -1.279161
2008-08-25 07:19:18 51°13.69 2°55.764 19.3705 0.059599 0.331869 -1.279161
2008-08-25 07:19:23 51°13.691 2°55.763 19.3643 0.059599 0.331869 -1.279161
2008-08-25 07:19:28 51°13.691 2°55.764 19.3636 0.059599 0.331875 -1.279161
2008-08-25 07:19:33 51°13.693 2°55.765 19.3564 0.059599 0.331881 -1.279161
2008-08-25 07:19:38 51°13.694 2°55.766 19.339 0.059599 0.331881 -1.279161
2008-08-25 07:19:43 51°13.695 2°55.767 19.3481 0.059599 0.331887 -1.279161
2008-08-25 07:19:47 51°13.695 2°55.767 19.3446 0.059599 0.331893 -1.279161
2008-08-25 07:19:52 51°13.696 2°55.766 19.3546 0.059599 0.331893 -1.279161
2008-08-25 07:19:57 51°13.696 2°55.765 19.32 0.059599 0.331899 -1.279161
2008-08-25 07:20:02 51°13.695 2°55.763 19.3539 0.059599 0.331899 -1.279161
2008-08-25 07:20:07 51°13.694 2°55.761 19.3561 0.059599 0.331899 -1.279161
2008-08-25 07:20:12 51°13.693 2°55.76 19.3499 0.059599 0.331899 -1.279161
2008-08-25 07:20:16 51°13.692 2°55.758 19.3502 0.059599 0.331899 -1.279161
2008-08-25 07:20:21 51°13.691 2°55.757 19.361 0.059599 0.331893 -1.279161
2008-08-25 07:20:27 51°13.691 2°55.756 19.3688 0.059599 0.331893 -1.279161
2008-08-25 07:20:33 51°13.692 2°55.756 19.3697 0.059599 0.331899 -1.279161
2008-08-25 07:20:38 51°13.694 2°55.757 19.3736 0.059599 0.331899 -1.279161
2008-08-25 07:20:44 51°13.697 2°55.758 19.3745 0.059599 0.331899 -1.279161
2008-08-25 07:20:49 51°13.701 2°55.758 19.3756 0.059599 0.331911 -1.279161
2008-08-25 07:20:54 51°13.705 2°55.757 19.3763 0.059599 0.331917 -1.279161
2008-08-25 07:20:59 51°13.71 2°55.755 19.3766 0.059599 0.331929 -1.279161
2008-08-25 07:21:04 51°13.716 2°55.751 19.3697 0.059599 0.331941 -1.279161
2008-08-25 07:21:08 51°13.721 2°55.748 19.3366 0.059599 0.331941 -1.279161
2008-08-25 07:21:13 51°13.727 2°55.743 19.3273 0.059599 0.331941 -1.279161
2008-08-25 07:21:18 51°13.734 2°55.737 19.3215 0.059599 0.331935 -1.279161
2008-08-25 07:21:23 51°13.741 2°55.73 19.3323 0.059599 0.331941 -1.279161
2008-08-25 07:21:28 51°13.748 2°55.722 19.3213 0.059599 0.331929 -1.279161
2008-08-25 07:21:33 51°13.756 2°55.715 19.3293 0.059599 0.331929 -1.244337
2008-08-25 07:21:37 51°13.762 2°55.708 19.3204 0.059599 0.331929 -1.244337
2008-08-25 07:21:42 51°13.77 2°55.7 19.312 0.059599 0.331929 -1.279161
2008-08-25 07:21:47 51°13.779 2°55.692 19.3163 0.059599 0.331923 -1.279161
2008-08-25 07:21:52 51°13.788 2°55.683 19.3205 0.059599 0.331923 -1.279161
2008-08-25 07:21:57 51°13.797 2°55.675 19.3252 0.059599 0.331929 -1.279161
2008-08-25 07:22:02 51°13.806 2°55.667 19.3207 0.059599 0.331935 -1.279161
2008-08-25 07:22:06 51°13.813 2°55.66 19.3186 0.059599 0.331935 -1.279161
2008-08-25 07:22:11 51°13.823 2°55.652 19.3303 0.059599 0.331935 -1.279161
2008-08-25 07:22:16 51°13.832 2°55.644 19.317 0.059599 0.331941 -1.279161
2008-08-25 07:22:21 51°13.842 2°55.636 19.3267 0.059599 0.331941 -1.279161
2008-08-25 07:22:26 51°13.852 2°55.628 19.3326 0.059599 0.331941 -1.279161
2008-08-25 07:22:31 51°13.862 2°55.62 19.3399 0.059599 0.331947 -1.279161
2008-08-25 07:22:36 51°13.872 2°55.612 19.3476 0.059599 0.331947 -1.279161
2008-08-25 07:22:40 51°13.88 2°55.605 19.338 0.059599 0.331941 -1.279161
2008-08-25 07:22:45 51°13.891 2°55.597 19.339 0.059599 0.331941 -1.279161
2008-08-25 07:22:51 51°13.903 2°55.587 19.3419 0.059599 0.331941 -1.279161
2008-08-25 07:22:56 51°13.914 2°55.579 19.3478 0.059599 0.331947 -1.279161
2008-08-25 07:23:00 51°13.922 2°55.573 19.3441 0.059599 0.331947 -1.279161
2008-08-25 07:23:05 51°13.932 2°55.564 19.3466 0.059599 0.331947 -1.279161
2008-08-25 07:23:11 51°13.945 2°55.555 19.3407 0.059599 0.331953 -1.279161
2008-08-25 07:23:16 51°13.956 2°55.546 19.3495 0.059599 0.331953 -1.279161
2008-08-25 07:23:20 51°13.964 2°55.54 19.3416 0.059599 0.331959 -1.279161
2008-08-25 07:23:26 51°13.977 2°55.53 19.3396 0.059599 0.331965 -1.279161
2008-08-25 07:23:31 51°13.987 2°55.521 19.3429 0.059599 0.331971 -1.279161
2008-08-25 07:23:36 51°13.998 2°55.513 19.3435 0.059599 0.331971 -1.279161
2008-08-25 07:23:40 51°14.007 2°55.507 19.3478 0.059599 0.331971 -1.279161
2008-08-25 07:23:45 51°14.017 2°55.499 19.3558 0.059599 0.331977 -1.279161
2008-08-25 07:23:51 51°14.03 2°55.489 19.3591 0.059599 0.331983 -1.279161
2008-08-25 07:23:56 51°14.04 2°55.481 19.3548 0.059599 0.331983 -1.279161
2008-08-25 07:24:00 51°14.049 2°55.474 19.3528 0.059599 0.331983 -1.279161
2008-08-25 07:24:05 51°14.06 2°55.466 19.3461 0.059599 0.331983 -1.279161
2008-08-25 07:24:11 51°14.072 2°55.455 19.3633 0.059599 0.331983 -1.279161
2008-08-25 07:24:16 51°14.083 2°55.447 19.3544 0.059599 0.331983 -1.279161
2008-08-25 07:24:20 51°14.091 2°55.44 19.3434 0.059599 0.331983 -1.279161
2008-08-25 07:24:25 51°14.102 2°55.431 19.3493 0.059599 0.331983 -1.279161
2008-08-25 07:24:31 51°14.115 2°55.421 19.3438 0.059599 0.331983 -1.279161
2008-08-25 07:24:36 51°14.125 2°55.412 19.3489 0.059599 0.331983 -1.279161
2008-08-25 07:24:40 51°14.133 2°55.405 19.3691 0.059599 0.331983 -1.279161
2008-08-25 07:24:45 51°14.144 2°55.396 19.3678 0.059599 0.331983 -1.279161
2008-08-25 07:24:50 51°14.154 2°55.387 19.3662 0.059599 0.331989 -1.279161
2008-08-25 07:24:56 51°14.166 2°55.375 19.3703 0.059599 0.331995 -1.279161
2008-08-25 07:25:01 51°14.176 2°55.365 19.3652 0.059599 0.332001 -1.279161
2008-08-25 07:25:05 51°14.184 2°55.356 19.3606 0.059599 0.332001 -1.279161
2008-08-25 07:25:11 51°14.195 2°55.343 19.3549 0.059599 0.332001 -1.279161
2008-08-25 07:25:15 51°14.203 2°55.334 19.3614 0.059599 0.332001 -1.279161
2008-08-25 07:25:20 51°14.213 2°55.322 19.3719 0.059599 0.332007 -1.279161
2008-08-25 07:25:25 51°14.222 2°55.31 19.3669 0.059599 0.332007 -1.279161
2008-08-25 07:25:31 51°14.234 2°55.294 19.3571 0.059599 0.332013 -1.279161
2008-08-25 07:25:36 51°14.243 2°55.281 19.357 0.059599 0.332013 -1.279161
2008-08-25 07:25:40 51°14.25 2°55.27 19.37 0.059599 0.332007 -1.279161
2008-08-25 07:25:45 51°14.259 2°55.256 19.366 0.059599 0.332013 -1.279161
2008-08-25 07:25:51 51°14.27 2°55.239 19.362 0.059599 0.332013 -1.279161
2008-08-25 07:25:56 51°14.279 2°55.224 19.3519 0.059599 0.332013 -1.279161
2008-08-25 07:26:00 51°14.286 2°55.211 19.3392 0.059599 0.332007 -1.244337
2008-08-25 07:26:05 51°14.295 2°55.196 19.3496 0.059599 0.332007 -1.244337
2008-08-25 07:26:11 51°14.306 2°55.176 19.3562 0.059599 0.332013 -1.279161
2008-08-25 07:26:16 51°14.315 2°55.16 19.3591 0.059599 0.332013 -1.279161
2008-08-25 07:26:20 51°14.323 2°55.147 19.3432 0.059599 0.332019 -1.279161
2008-08-25 07:26:25 51°14.332 2°55.13 19.3339 0.059599 0.332019 -1.279161
2008-08-25 07:26:31 51°14.343 2°55.109 19.3439 0.059599 0.332025 -1.279161
2008-08-25 07:26:36 51°14.352 2°55.091 19.345 0.059599 0.332025 -1.279161
2008-08-25 07:26:40 51°14.36 2°55.077 19.3291 0.059599 0.332019 -1.279161
2008-08-25 07:26:45 51°14.37 2°55.059 19.3596 0.059599 0.332019 -1.279161
2008-08-25 07:26:50 51°14.38 2°55.042 19.3322 0.059599 0.332025 -1.279161
2008-08-25 07:26:56 51°14.392 2°55.021 19.3374 0.059599 0.332025 -1.279161
2008-08-25 07:27:00 51°14.401 2°55.008 19.3254 0.059599 0.332025 -1.279161
2008-08-25 07:27:05 51°14.413 2°54.991 19.3246 0.059599 0.332025 -1.279161
2008-08-25 07:27:11 51°14.428 2°54.972 19.3605 0.059599 0.332019 -1.279161
2008-08-25 07:27:15 51°14.438 2°54.959 19.3412 0.059599 0.332031 -1.279161
2008-08-25 07:27:20 51°14.45 2°54.942 19.3516 0.059599 0.332037 -1.279161
2008-08-25 07:27:25 51°14.462 2°54.925 19.3617 0.059599 0.332037 -1.279161
2008-08-25 07:27:31 51°14.476 2°54.903 19.3622 0.059599 0.332049 -1.279161
2008-08-25 07:27:36 51°14.486 2°54.884 19.3351 0.059599 0.332049 -1.279161
2008-08-25 07:27:40 51°14.494 2°54.867 19.3328 0.059599 0.332055 -1.279161
2008-08-25 07:27:45 51°14.504 2°54.847 19.3204 0.059599 0.332049 -1.279161
2008-08-25 07:27:51 51°14.515 2°54.822 19.3236 0.059599 0.332043 -1.279161
2008-08-25 07:27:56 51°14.525 2°54.802 19.3168 0.059599 0.332043 -1.279161
2008-08-25 07:28:00 51°14.533 2°54.786 19.3419 0.059599 0.332043 -1.279161
2008-08-25 07:28:06 51°14.545 2°54.761 19.33 0.059599 0.332043 -1.279161
2008-08-25 07:28:11 51°14.554 2°54.741 19.3484 0.059599 0.332043 -1.279161
2008-08-25 07:28:16 51°14.564 2°54.721 19.3553 0.059599 0.332043 -1.279161
2008-08-25 07:28:20 51°14.571 2°54.705 19.3347 0.059599 0.332055 -1.279161
2008-08-25 07:28:25 51°14.579 2°54.684 19.3256 0.059599 0.332055 -1.279161
2008-08-25 07:28:31 51°14.588 2°54.66 19.3446 0.059599 0.332055 -1.279161
2008-08-25 07:28:36 51°14.596 2°54.639 19.3355 0.059599 0.332055 -1.279161
2008-08-25 07:28:40 51°14.603 2°54.624 19.3492 0.059599 0.332055 -1.279161
2008-08-25 07:28:45 51°14.611 2°54.605 19.3564 0.059599 0.332061 -1.279161
2008-08-25 07:28:50 51°14.62 2°54.585 19.3526 0.059599 0.332067 -1.279161
2008-08-25 07:28:56 51°14.629 2°54.562 19.357 0.059599 0.332067 -1.279161
2008-08-25 07:29:00 51°14.636 2°54.546 19.3657 0.059599 0.332073 -1.279161
2008-08-25 07:29:05 51°14.643 2°54.527 19.3422 0.059599 0.332073 -1.279161
2008-08-25 07:29:11 51°14.652 2°54.503 19.3397 0.059599 0.332079 -1.279161
2008-08-25 07:29:15 51°14.657 2°54.487 19.3363 0.059599 0.332079 -1.279161
2008-08-25 07:29:20 51°14.664 2°54.467 19.3471 0.059599 0.332079 -1.279161
2008-08-25 07:29:25 51°14.67 2°54.447 19.3418 0.059599 0.332073 -1.279161
2008-08-25 07:29:30 51°14.676 2°54.427 19.351 0.059599 0.332073 -1.279161
2008-08-25 07:29:36 51°14.683 2°54.403 19.3336 0.059599 0.332073 -1.279161
2008-08-25 07:29:40 51°14.688 2°54.386 19.3379 0.059599 0.332073 -1.279161
2008-08-25 07:29:45 51°14.693 2°54.366 19.3313 0.059599 0.332073 -1.279161
2008-08-25 07:29:51 51°14.7 2°54.341 19.3401 0.059599 0.332073 -1.279161
2008-08-25 07:29:56 51°14.706 2°54.321 19.3454 0.059599 0.332073 -1.279161
2008-08-25 07:30:00 51°14.71 2°54.304 19.3258 0.059599 0.332073 -1.279161
2008-08-25 07:30:05 51°14.716 2°54.284 19.3433 0.059599 0.332073 -1.279161
2008-08-25 07:30:11 51°14.724 2°54.26 19.338 0.059599 0.332079 -1.279161
2008-08-25 07:30:16 51°14.729 2°54.239 19.3441 0.059599 0.332085 -1.279161
2008-08-25 07:30:20 51°14.734 2°54.223 19.3297 0.059599 0.332091 -1.279161
2008-08-25 07:30:25 51°14.739 2°54.202 19.3425 0.059599 0.332098 -1.279161
2008-08-25 07:30:31 51°14.746 2°54.177 19.3299 0.059599 0.332098 -1.279161
2008-08-25 07:30:36 51°14.751 2°54.157 19.3289 0.059599 0.332098 -1.279161
2008-08-25 07:30:40 51°14.755 2°54.14 19.3298 0.059599 0.332098 -1.279161
2008-08-25 07:30:45 51°14.761 2°54.12 19.3416 0.059599 0.332098 -1.279161
2008-08-25 07:30:51 51°14.767 2°54.095 19.3539 0.059599 0.332098 -1.279161
2008-08-25 07:30:56 51°14.773 2°54.075 19.3478 0.059599 0.33211 -1.279161
2008-08-25 07:31:00 51°14.776 2°54.059 19.3471 0.059599 0.332104 -1.279161
2008-08-25 07:31:05 51°14.78 2°54.038 19.3378 0.059599 0.332104 -1.279161
2008-08-25 07:31:10 51°14.784 2°54.016 19.3327 0.059599 0.33211 -1.279161
2008-08-25 07:31:16 51°14.788 2°53.991 19.3345 0.059599 0.332104 -1.279161
2008-08-25 07:31:20 51°14.79 2°53.974 19.3319 0.059599 0.332104 -1.279161
2008-08-25 07:31:25 51°14.793 2°53.952 19.335 0.059599 0.332104 -1.279161
2008-08-25 07:31:31 51°14.796 2°53.926 19.3391 0.059599 0.332104 -1.279161
2008-08-25 07:31:35 51°14.797 2°53.909 19.3325 0.059599 0.332104 -1.279161
2008-08-25 07:31:40 51°14.8 2°53.887 19.3335 0.059599 0.332104 -1.279161
2008-08-25 07:31:45 51°14.802 2°53.865 19.3308 0.059599 0.33211 -1.279161
2008-08-25 07:31:50 51°14.803 2°53.844 19.3297 0.059599 0.33211 -1.279161
2008-08-25 07:31:56 51°14.806 2°53.817 19.3485 0.059599 0.33211 -1.279161
2008-08-25 07:32:00 51°14.807 2°53.8 19.3433 0.059599 0.332116 -1.279161
2008-08-25 07:32:05 51°14.809 2°53.778 19.3451 0.059599 0.332116 -1.279161
2008-08-25 07:32:11 51°14.811 2°53.752 19.3171 0.059599 0.332116 -1.279161
2008-08-25 07:32:16 51°14.812 2°53.73 19.3377 0.059599 0.332122 -1.279161
2008-08-25 07:32:20 51°14.813 2°53.712 19.3328 0.059599 0.332122 -1.279161
2008-08-25 07:32:25 51°14.815 2°53.69 19.3364 0.059599 0.332128 -1.279161
2008-08-25 07:32:31 51°14.817 2°53.664 19.3447 0.059599 0.332122 -1.279161
2008-08-25 07:32:36 51°14.818 2°53.641 19.3393 0.059599 0.332122 -1.279161
2008-08-25 07:32:40 51°14.819 2°53.624 19.3454 0.059599 0.332128 -1.279161
2008-08-25 07:32:45 51°14.821 2°53.602 19.3362 0.059599 0.332122 -1.279161
2008-08-25 07:32:51 51°14.823 2°53.575 19.3437 0.059599 0.332122 -1.279161
2008-08-25 07:32:56 51°14.824 2°53.553 19.3358 0.059599 0.332128 -1.279161
2008-08-25 07:33:00 51°14.825 2°53.536 19.3208 0.059599 0.332122 -1.279161
2008-08-25 07:33:05 51°14.827 2°53.514 19.3315 0.059599 0.332122 -1.279161
2008-08-25 07:33:11 51°14.829 2°53.487 19.3266 0.059599 0.332128 -1.279161
2008-08-25 07:33:16 51°14.831 2°53.465 19.3376 0.059599 0.332122 -1.279161
2008-08-25 07:33:20 51°14.833 2°53.448 19.3396 0.059599 0.332128 -1.279161
2008-08-25 07:33:25 51°14.835 2°53.426 19.3306 0.059599 0.332134 -1.279161
2008-08-25 07:33:30 51°14.837 2°53.404 19.3371 0.059599 0.332134 -1.279161
2008-08-25 07:33:36 51°14.84 2°53.378 19.334 0.059599 0.332134 -1.279161
2008-08-25 07:33:40 51°14.842 2°53.36 19.347 0.059599 0.332134 -1.279161
2008-08-25 07:33:45 51°14.844 2°53.338 19.3379 0.059599 0.33214 -1.279161
2008-08-25 07:33:51 51°14.847 2°53.312 19.3419 0.059599 0.33214 -1.279161
2008-08-25 07:33:56 51°14.849 2°53.29 19.3321 0.059599 0.33214 -1.279161
2008-08-25 07:34:00 51°14.851 2°53.273 19.3444 0.059599 0.33214 -1.279161
2008-08-25 07:34:05 51°14.854 2°53.251 19.3448 0.059599 0.33214 -1.279161
2008-08-25 07:34:11 51°14.856 2°53.224 19.344 0.059599 0.33214 -1.279161
2008-08-25 07:34:16 51°14.859 2°53.202 19.3481 0.059599 0.33214 -1.279161
2008-08-25 07:34:20 51°14.861 2°53.185 19.3469 0.059599 0.332146 -1.279161
2008-08-25 07:34:25 51°14.863 2°53.163 19.3431 0.059599 0.33214 -1.279161
2008-08-25 07:34:31 51°14.866 2°53.137 19.3422 0.059599 0.33214 -1.279161
2008-08-25 07:34:36 51°14.868 2°53.115 19.341 0.059599 0.33214 -1.279161
2008-08-25 07:34:40 51°14.87 2°53.097 19.3354 0.059599 0.33214 -1.279161
2008-08-25 07:34:45 51°14.872 2°53.075 19.3313 0.059599 0.33214 -1.279161
2008-08-25 07:34:51 51°14.875 2°53.049 19.3437 0.059599 0.33214 -1.279161
2008-08-25 07:34:56 51°14.877 2°53.027 19.3461 0.059599 0.33214 -1.279161
2008-08-25 07:35:00 51°14.879 2°53.009 19.3504 0.059599 0.332146 -1.279161
2008-08-25 07:35:05 51°14.881 2°52.987 19.3447 0.059599 0.332146 -1.279161
2008-08-25 07:35:11 51°14.884 2°52.961 19.3508 0.059599 0.332146 -1.279161
2008-08-25 07:35:16 51°14.886 2°52.939 19.3435 0.059599 0.33214 -1.279161
2008-08-25 07:35:20 51°14.888 2°52.921 19.3468 0.059599 0.332146 -1.279161
2008-08-25 07:35:25 51°14.89 2°52.899 19.3551 0.059599 0.33214 -1.279161
2008-08-25 07:35:31 51°14.893 2°52.873 19.3461 0.059599 0.332146 -1.279161
2008-08-25 07:35:36 51°14.895 2°52.851 19.3408 0.059599 0.332146 -1.279161
2008-08-25 07:35:40 51°14.897 2°52.834 19.3448 0.059599 0.332146 -1.279161
2008-08-25 07:35:45 51°14.899 2°52.812 19.3474 0.059599 0.332146 -1.279161
2008-08-25 07:35:51 51°14.901 2°52.786 19.3457 0.059599 0.33214 -1.279161
2008-08-25 07:35:56 51°14.904 2°52.764 19.3446 0.059599 0.33214 -1.279161
2008-08-25 07:36:00 51°14.906 2°52.747 19.3494 0.059599 0.33214 -1.279161
2008-08-25 07:36:05 51°14.908 2°52.725 19.3509 0.059599 0.33214 -1.279161
2008-08-25 07:36:10 51°14.91 2°52.703 19.3485 0.059599 0.33214 -1.279161
2008-08-25 07:36:16 51°14.913 2°52.677 19.3526 0.059599 0.33214 -1.279161
2008-08-25 07:36:20 51°14.915 2°52.659 19.3487 0.059599 0.33214 -1.244337
2008-08-25 07:36:25 51°14.917 2°52.638 19.3588 0.059599 0.332134 -1.279161
2008-08-25 07:36:31 51°14.92 2°52.612 19.3491 0.059599 0.332134 -1.279161
2008-08-25 07:36:36 51°14.922 2°52.59 19.3546 0.059599 0.332134 -1.279161
2008-08-25 07:36:40 51°14.924 2°52.572 19.3651 0.059599 0.33214 -1.279161
2008-08-25 07:36:45 51°14.926 2°52.55 19.343 0.059599 0.33214 -1.279161
2008-08-25 07:36:51 51°14.928 2°52.524 19.3579 0.059599 0.332134 -1.279161
2008-08-25 07:36:56 51°14.93 2°52.502 19.3508 0.059599 0.332134 -1.279161
2008-08-25 07:37:00 51°14.932 2°52.485 19.3566 0.059599 0.332134 -1.279161
2008-08-25 07:37:05 51°14.934 2°52.463 19.3516 0.059599 0.332134 -1.279161
2008-08-25 07:37:11 51°14.936 2°52.437 19.3506 0.059599 0.332134 -1.279161
2008-08-25 07:37:16 51°14.937 2°52.415 19.344 0.059599 0.332122 -1.279161
2008-08-25 07:37:20 51°14.939 2°52.397 19.359 0.059599 0.332122 -1.279161
2008-08-25 07:37:25 51°14.941 2°52.374 19.3615 0.059599 0.332122 -1.279161
2008-08-25 07:37:31 51°14.944 2°52.347 19.3476 0.059599 0.332122 -1.279161
2008-08-25 07:37:36 51°14.946 2°52.324 19.3568 0.059599 0.332122 -1.279161
2008-08-25 07:37:40 51°14.948 2°52.305 19.3509 0.059599 0.332122 -1.279161
2008-08-25 07:37:45 51°14.951 2°52.282 19.3556 0.059599 0.332116 -1.244337
2008-08-25 07:37:51 51°14.954 2°52.253 19.3576 0.059599 0.332122 -1.279161
2008-08-25 07:37:56 51°14.956 2°52.229 19.3504 0.059599 0.332116 -1.279161
2008-08-25 07:38:00 51°14.958 2°52.21 19.3511 0.059599 0.332116 -1.279161
2008-08-25 07:38:05 51°14.961 2°52.186 19.3502 0.059599 0.332116 -1.279161
2008-08-25 07:38:11 51°14.964 2°52.156 19.3564 0.059599 0.332116 -1.279161
2008-08-25 07:38:15 51°14.966 2°52.137 19.3582 0.059599 0.33211 -1.279161
2008-08-25 07:38:20 51°14.969 2°52.112 19.3508 0.059599 0.33211 -1.279161
2008-08-25 07:38:25 51°14.972 2°52.088 19.3652 0.059599 0.33211 -1.279161
2008-08-25 07:38:30 51°14.974 2°52.063 19.3554 0.059599 0.33211 -1.279161
2008-08-25 07:38:36 51°14.978 2°52.033 19.3666 0.059599 0.33211 -1.279161
2008-08-25 07:38:40 51°14.979 2°52.013 19.3564 0.059599 0.33211 -1.279161
2008-08-25 07:38:45 51°14.982 2°51.988 19.3572 0.059599 0.332104 -1.279161
2008-08-25 07:38:51 51°14.984 2°51.957 19.3557 0.059599 0.332104 -1.279161
2008-08-25 07:38:56 51°14.986 2°51.932 19.3535 0.059599 0.332104 -1.279161
2008-08-25 07:39:00 51°14.988 2°51.912 19.3704 0.059599 0.332098 -1.279161
2008-08-25 07:39:05 51°14.991 2°51.887 19.3642 0.059599 0.332098 -1.279161
2008-08-25 07:39:11 51°14.993 2°51.857 19.3528 0.059599 0.332098 -1.279161
2008-08-25 07:39:16 51°14.995 2°51.831 19.3606 0.059599 0.332098 -1.279161
2008-08-25 07:39:20 51°14.997 2°51.811 19.3651 0.059599 0.332098 -1.279161
2008-08-25 07:39:25 51°14.999 2°51.786 19.3625 0.059599 0.332098 -1.279161
2008-08-25 07:39:31 51°15.001 2°51.755 19.3475 0.059599 0.332091 -1.279161
2008-08-25 07:39:36 51°15.002 2°51.73 19.3669 0.059599 0.332091 -1.279161
2008-08-25 07:39:40 51°15.004 2°51.71 19.3619 0.059599 0.332091 -1.279161
2008-08-25 07:39:45 51°15.006 2°51.684 19.3586 0.059599 0.332091 -1.279161
2008-08-25 07:39:51 51°15.009 2°51.654 19.3682 0.059599 0.332091 -1.279161
2008-08-25 07:39:56 51°15.012 2°51.629 19.3719 0.059599 0.332085 -1.279161
2008-08-25 07:40:00 51°15.014 2°51.609 19.3625 0.059599 0.332091 -1.279161
2008-08-25 07:40:05 51°15.017 2°51.583 19.3707 0.059599 0.332091 -1.279161
2008-08-25 07:40:11 51°15.02 2°51.553 19.3704 0.059599 0.332091 -1.279161
2008-08-25 07:40:16 51°15.023 2°51.527 19.363 0.059599 0.332085 -1.279161
2008-08-25 07:40:20 51°15.025 2°51.507 19.3687 0.059599 0.332085 -1.279161
2008-08-25 07:40:25 51°15.028 2°51.482 19.37 0.059599 0.332085 -1.279161
2008-08-25 07:40:31 51°15.032 2°51.452 19.3687 0.059599 0.332085 -1.279161
2008-08-25 07:40:36 51°15.035 2°51.426 19.3696 0.059599 0.332085 -1.279161
2008-08-25 07:40:40 51°15.037 2°51.406 19.3796 0.059599 0.332085 -1.279161
2008-08-25 07:40:45 51°15.04 2°51.381 19.3759 0.059599 0.332085 -1.279161
2008-08-25 07:40:51 51°15.043 2°51.351 19.3775 0.059599 0.332085 -1.279161
2008-08-25 07:40:55 51°15.045 2°51.33 19.3762 0.059599 0.332085 -1.279161
2008-08-25 07:41:00 51°15.047 2°51.305 19.3681 0.059599 0.332079 -1.279161
2008-08-25 07:41:05 51°15.049 2°51.28 19.3745 0.059599 0.332079 -1.279161
2008-08-25 07:41:11 51°15.051 2°51.249 19.3688 0.059599 0.332085 -1.279161
2008-08-25 07:41:16 51°15.053 2°51.224 19.3805 0.059599 0.332079 -1.279161
2008-08-25 07:41:20 51°15.055 2°51.204 19.377 0.059599 0.332079 -1.279161
2008-08-25 07:41:25 51°15.057 2°51.179 19.3795 0.059599 0.332079 -1.279161
2008-08-25 07:41:31 51°15.06 2°51.149 19.3729 0.059599 0.332079 -1.279161
2008-08-25 07:41:36 51°15.061 2°51.124 19.3782 0.059599 0.332079 -1.279161
2008-08-25 07:41:40 51°15.063 2°51.104 19.3759 0.059599 0.332079 -1.279161
2008-08-25 07:41:46 51°15.065 2°51.073 19.3862 0.059599 0.332079 -1.279161
2008-08-25 07:41:51 51°15.067 2°51.048 19.3731 0.059599 0.332079 -1.279161
2008-08-25 07:41:56 51°15.069 2°51.023 19.3898 0.059599 0.332079 -1.279161
2008-08-25 07:42:00 51°15.071 2°51.003 19.3744 0.059599 0.332079 -1.279161
2008-08-25 07:42:05 51°15.073 2°50.978 19.3657 0.059599 0.332079 -1.279161
2008-08-25 07:42:11 51°15.076 2°50.948 19.3806 0.059599 0.332079 -1.279161
2008-08-25 07:42:16 51°15.079 2°50.923 19.3788 0.059599 0.332079 -1.279161
2008-08-25 07:42:20 51°15.082 2°50.903 19.3889 0.059599 0.332079 -1.279161
2008-08-25 07:42:25 51°15.085 2°50.878 19.3856 0.059599 0.332085 -1.279161
2008-08-25 07:42:31 51°15.09 2°50.848 19.3819 0.059599 0.332079 -1.279161
2008-08-25 07:42:36 51°15.094 2°50.823 19.3763 0.059599 0.332079 -1.279161
2008-08-25 07:42:40 51°15.097 2°50.804 19.3799 0.059599 0.332079 -1.279161
2008-08-25 07:42:45 51°15.101 2°50.779 19.3876 0.059599 0.332079 -1.279161
2008-08-25 07:42:51 51°15.106 2°50.749 19.3903 0.059599 0.332079 -1.279161
2008-08-25 07:42:56 51°15.111 2°50.724 19.3932 0.059599 0.332079 -1.279161
2008-08-25 07:43:00 51°15.115 2°50.704 19.3926 0.059599 0.332079 -1.279161
2008-08-25 07:43:05 51°15.12 2°50.68 19.3886 0.059599 0.332079 -1.279161
2008-08-25 07:43:11 51°15.126 2°50.65 19.3856 0.059599 0.332085 -1.279161
2008-08-25 07:43:16 51°15.131 2°50.626 19.3933 0.059599 0.332085 -1.279161
2008-08-25 07:43:20 51°15.135 2°50.606 19.4029 0.059599 0.332085 -1.279161
2008-08-25 07:43:25 51°15.14 2°50.582 19.3975 0.059599 0.332085 -1.279161
2008-08-25 07:43:31 51°15.146 2°50.552 19.3944 0.059599 0.332085 -1.279161
2008-08-25 07:43:36 51°15.151 2°50.528 19.3894 0.059599 0.332085 -1.279161
2008-08-25 07:43:40 51°15.155 2°50.508 19.3874 0.059599 0.332085 -1.279161
2008-08-25 07:43:45 51°15.159 2°50.484 19.3914 0.059599 0.332085 -1.279161
2008-08-25 07:43:51 51°15.165 2°50.454 19.3909 0.059599 0.332085 -1.279161
2008-08-25 07:43:56 51°15.17 2°50.429 19.3986 0.059599 0.332085 -1.279161
2008-08-25 07:44:00 51°15.174 2°50.409 19.3958 0.059599 0.332085 -1.279161
2008-08-25 07:44:05 51°15.179 2°50.385 19.4015 0.059599 0.332085 -1.279161
2008-08-25 07:44:11 51°15.185 2°50.355 19.3948 0.059599 0.332085 -1.279161
2008-08-25 07:44:16 51°15.189 2°50.331 19.3983 0.059599 0.332091 -1.279161
2008-08-25 07:44:20 51°15.192 2°50.311 19.4044 0.059599 0.332091 -1.279161
2008-08-25 07:44:25 51°15.198 2°50.286 19.4005 0.059599 0.332091 -1.279161
2008-08-25 07:44:31 51°15.203 2°50.256 19.3994 0.059599 0.332091 -1.279161
2008-08-25 07:44:36 51°15.208 2°50.231 19.4073 0.059599 0.332091 -1.279161
2008-08-25 07:44:40 51°15.212 2°50.212 19.3955 0.059599 0.332091 -1.279161
2008-08-25 07:44:45 51°15.216 2°50.187 19.3961 0.059599 0.332091 -1.279161
2008-08-25 07:44:51 51°15.222 2°50.157 19.3982 0.059599 0.332091 -1.279161
2008-08-25 07:44:56 51°15.227 2°50.132 19.4047 0.059599 0.332091 -1.279161
2008-08-25 07:45:00 51°15.231 2°50.112 19.407 0.059599 0.332091 -1.279161
2008-08-25 07:45:05 51°15.235 2°50.088 19.4016 0.059599 0.332091 -1.279161
2008-08-25 07:45:10 51°15.24 2°50.063 19.4033 0.059599 0.332091 -1.279161
2008-08-25 07:45:16 51°15.245 2°50.033 19.4094 0.059599 0.332091 -1.279161
2008-08-25 07:45:20 51°15.249 2°50.014 19.4016 0.059599 0.332098 -1.279161
2008-08-25 07:45:25 51°15.253 2°49.989 19.4093 0.059599 0.332091 -1.279161
2008-08-25 07:45:31 51°15.259 2°49.959 19.4033 0.059599 0.332098 -1.279161
2008-08-25 07:45:36 51°15.263 2°49.935 19.4146 0.059599 0.332098 -1.279161
2008-08-25 07:45:41 51°15.267 2°49.911 19.4052 0.059599 0.332098 -1.279161
2008-08-25 07:45:45 51°15.271 2°49.891 19.4091 0.059599 0.332104 -1.279161
2008-08-25 07:45:51 51°15.276 2°49.861 19.419 0.059599 0.332104 -1.279161
2008-08-25 07:45:56 51°15.281 2°49.836 19.4112 0.059599 0.332104 -1.279161
2008-08-25 07:46:00 51°15.284 2°49.817 19.4183 0.059599 0.33211 -1.279161
2008-08-25 07:46:05 51°15.288 2°49.792 19.4156 0.059599 0.33211 -1.279161
2008-08-25 07:46:11 51°15.292 2°49.762 19.4099 0.059599 0.33211 -1.279161
2008-08-25 07:46:16 51°15.296 2°49.737 19.4091 0.059599 0.33211 -1.279161
2008-08-25 07:46:20 51°15.299 2°49.717 19.405 0.059599 0.33211 -1.279161
2008-08-25 07:46:25 51°15.303 2°49.692 19.4154 0.059599 0.332104 -1.279161
2008-08-25 07:46:31 51°15.307 2°49.662 19.4049 0.059599 0.33211 -1.279161
2008-08-25 07:46:36 51°15.311 2°49.637 19.4107 0.059599 0.33211 -1.279161
2008-08-25 07:46:40 51°15.315 2°49.617 19.4134 0.059599 0.332104 -1.279161
2008-08-25 07:46:45 51°15.319 2°49.592 19.4138 0.059599 0.332104 -1.279161
2008-08-25 07:46:51 51°15.326 2°49.563 19.4128 0.059599 0.332104 -1.279161
2008-08-25 07:46:56 51°15.332 2°49.539 19.4237 0.059599 0.33211 -1.279161
2008-08-25 07:47:00 51°15.337 2°49.52 19.4157 0.059599 0.332116 -1.279161
2008-08-25 07:47:05 51°15.343 2°49.496 19.426 0.059599 0.332116 -1.279161
2008-08-25 07:47:10 51°15.349 2°49.472 19.4288 0.059599 0.332116 -1.279161
2008-08-25 07:47:16 51°15.357 2°49.443 19.4093 0.059599 0.332128 -1.279161
2008-08-25 07:47:20 51°15.362 2°49.424 19.4309 0.059599 0.332122 -1.279161
2008-08-25 07:47:25 51°15.368 2°49.4 19.414 0.059599 0.332128 -1.279161
2008-08-25 07:47:31 51°15.374 2°49.37 19.4182 0.059599 0.332128 -1.279161
2008-08-25 07:47:35 51°15.379 2°49.351 19.4251 0.059599 0.332128 -1.279161
2008-08-25 07:47:40 51°15.384 2°49.326 19.4259 0.059599 0.332128 -1.279161
2008-08-25 07:47:45 51°15.39 2°49.302 19.4195 0.059599 0.332128 -1.279161
2008-08-25 07:47:50 51°15.395 2°49.277 19.429 0.059599 0.332128 -1.279161
2008-08-25 07:47:56 51°15.401 2°49.248 19.4272 0.059599 0.332128 -1.279161
2008-08-25 07:48:00 51°15.406 2°49.229 19.431 0.059599 0.332122 -1.279161
2008-08-25 07:48:06 51°15.412 2°49.199 19.4346 0.059599 0.332122 -1.279161
2008-08-25 07:48:11 51°15.418 2°49.175 19.4338 0.059599 0.332122 -1.279161
2008-08-25 07:48:15 51°15.422 2°49.155 19.4256 0.059599 0.332128 -1.279161
2008-08-25 07:48:20 51°15.428 2°49.131 19.4329 0.059599 0.332128 -1.279161
2008-08-25 07:48:25 51°15.433 2°49.106 19.4282 0.059599 0.332128 -1.279161
2008-08-25 07:48:31 51°15.439 2°49.077 19.4264 0.059599 0.332134 -1.279161
2008-08-25 07:48:36 51°15.445 2°49.053 19.4378 0.059599 0.332134 -1.279161
2008-08-25 07:48:40 51°15.449 2°49.033 19.4321 0.059599 0.332134 -1.279161
2008-08-25 07:48:45 51°15.455 2°49.009 19.4382 0.059599 0.33214 -1.279161
2008-08-25 07:48:51 51°15.461 2°48.98 19.432 0.059599 0.33214 -1.279161
2008-08-25 07:48:56 51°15.466 2°48.956 19.435 0.059599 0.332146 -1.279161
2008-08-25 07:49:00 51°15.471 2°48.937 19.4353 0.059599 0.332146 -1.279161
2008-08-25 07:49:05 51°15.476 2°48.912 19.4374 0.059599 0.332146 -1.279161
2008-08-25 07:49:11 51°15.482 2°48.883 19.4331 0.059599 0.332146 -1.279161
2008-08-25 07:49:16 51°15.488 2°48.859 19.4346 0.059599 0.332146 -1.279161
2008-08-25 07:49:20 51°15.492 2°48.839 19.4404 0.059599 0.332146 -1.279161
2008-08-25 07:49:25 51°15.497 2°48.815 19.433 0.059599 0.332146 -1.279161
2008-08-25 07:49:31 51°15.504 2°48.786 19.4364 0.059599 0.332152 -1.279161
2008-08-25 07:49:36 51°15.509 2°48.762 19.4469 0.059599 0.332152 -1.279161
2008-08-25 07:49:40 51°15.513 2°48.742 19.4394 0.059599 0.332152 -1.279161
2008-08-25 07:49:45 51°15.518 2°48.718 19.4428 0.059599 0.332152 -1.279161
2008-08-25 07:49:51 51°15.524 2°48.689 19.4386 0.059599 0.332146 -1.279161
2008-08-25 07:49:55 51°15.529 2°48.669 19.443 0.059599 0.332152 -1.279161
2008-08-25 07:50:00 51°15.534 2°48.645 19.441 0.059599 0.332152 -1.279161
2008-08-25 07:50:05 51°15.539 2°48.62 19.4469 0.059599 0.332152 -1.279161
2008-08-25 07:50:11 51°15.545 2°48.591 19.4372 0.059599 0.332158 -1.279161
2008-08-25 07:50:16 51°15.55 2°48.566 19.4455 0.059599 0.332158 -1.279161
2008-08-25 07:50:20 51°15.555 2°48.547 19.4428 0.059599 0.332164 -1.279161
2008-08-25 07:50:25 51°15.559 2°48.522 19.4485 0.059599 0.332164 -1.279161
2008-08-25 07:50:31 51°15.566 2°48.492 19.4444 0.059599 0.332164 -1.279161
2008-08-25 07:50:35 51°15.57 2°48.473 19.4438 0.059599 0.332164 -1.279161
2008-08-25 07:50:40 51°15.574 2°48.448 19.4584 0.059599 0.332164 -1.279161
2008-08-25 07:50:45 51°15.58 2°48.424 19.4541 0.059599 0.33217 -1.279161
2008-08-25 07:50:51 51°15.586 2°48.394 19.4589 0.059599 0.33217 -1.279161
2008-08-25 07:50:56 51°15.591 2°48.369 19.4559 0.059599 0.33217 -1.279161
2008-08-25 07:51:00 51°15.594 2°48.349 19.4547 0.059599 0.33217 -1.279161
2008-08-25 07:51:06 51°15.6 2°48.32 19.4547 0.059599 0.33217 -1.279161
2008-08-25 07:51:11 51°15.605 2°48.295 19.456 0.059599 0.33217 -1.279161
2008-08-25 07:51:16 51°15.61 2°48.27 19.4574 0.059599 0.33217 -1.279161
2008-08-25 07:51:20 51°15.614 2°48.25 19.459 0.059599 0.33217 -1.279161
2008-08-25 07:51:25 51°15.619 2°48.225 19.4513 0.059599 0.332176 -1.279161
2008-08-25 07:51:31 51°15.625 2°48.195 19.4589 0.059599 0.332176 -1.279161
2008-08-25 07:51:36 51°15.63 2°48.171 19.4617 0.059599 0.332176 -1.279161
2008-08-25 07:51:40 51°15.635 2°48.151 19.4597 0.059599 0.332176 -1.279161
2008-08-25 07:51:45 51°15.64 2°48.126 19.4581 0.059599 0.332182 -1.279161
2008-08-25 07:51:51 51°15.646 2°48.096 19.4603 0.059599 0.332182 -1.279161
2008-08-25 07:51:56 51°15.651 2°48.072 19.4629 0.059599 0.332182 -1.279161
2008-08-25 07:52:00 51°15.656 2°48.052 19.461 0.059599 0.332188 -1.279161
2008-08-25 07:52:05 51°15.661 2°48.027 19.4614 0.059599 0.332188 -1.279161
2008-08-25 07:52:11 51°15.667 2°47.997 19.4575 0.059599 0.332188 -1.279161
2008-08-25 07:52:15 51°15.672 2°47.977 19.4724 0.059599 0.332188 -1.279161
2008-08-25 07:52:20 51°15.677 2°47.953 19.471 0.059599 0.332194 -1.279161
2008-08-25 07:52:25 51°15.682 2°47.928 19.4682 0.059599 0.332194 -1.279161
2008-08-25 07:52:31 51°15.688 2°47.898 19.4627 0.059599 0.332194 -1.279161
2008-08-25 07:52:36 51°15.694 2°47.874 19.474 0.059599 0.332194 -1.279161
2008-08-25 07:52:40 51°15.698 2°47.854 19.4698 0.059599 0.3322 -1.279161
2008-08-25 07:52:46 51°15.704 2°47.824 19.4755 0.059599 0.3322 -1.279161
2008-08-25 07:52:51 51°15.71 2°47.8 19.4633 0.059599 0.3322 -1.279161
2008-08-25 07:52:55 51°15.714 2°47.78 19.4725 0.059599 0.3322 -1.279161
2008-08-25 07:53:00 51°15.719 2°47.756 19.4762 0.059599 0.3322 -1.279161
2008-08-25 07:53:05 51°15.724 2°47.731 19.4802 0.059599 0.3322 -1.279161
2008-08-25 07:53:11 51°15.731 2°47.701 19.476 0.059599 0.332206 -1.279161
2008-08-25 07:53:16 51°15.736 2°47.677 19.4766 0.059599 0.332206 -1.279161
2008-08-25 07:53:20 51°15.74 2°47.657 19.4756 0.059599 0.332212 -1.279161
2008-08-25 07:53:25 51°15.744 2°47.633 19.4792 0.059599 0.332212 -1.279161
2008-08-25 07:53:31 51°15.75 2°47.603 19.4739 0.059599 0.332212 -1.279161
2008-08-25 07:53:36 51°15.754 2°47.578 19.4678 0.059599 0.332212 -1.279161
2008-08-25 07:53:40 51°15.758 2°47.558 19.475 0.059599 0.332212 -1.279161
2008-08-25 07:53:45 51°15.762 2°47.534 19.4779 0.059599 0.332212 -1.279161
2008-08-25 07:53:50 51°15.767 2°47.509 19.4789 0.059599 0.332218 -1.279161
2008-08-25 07:53:56 51°15.772 2°47.48 19.4784 0.059599 0.332212 -1.279161
2008-08-25 07:54:00 51°15.775 2°47.46 19.4824 0.059599 0.332218 -1.279161
2008-08-25 07:54:05 51°15.78 2°47.435 19.4843 0.059599 0.332218 -1.279161
2008-08-25 07:54:10 51°15.784 2°47.411 19.4901 0.059599 0.332218 -1.279161
2008-08-25 07:54:16 51°15.79 2°47.381 19.4761 0.059599 0.332224 -1.279161
2008-08-25 07:54:20 51°15.793 2°47.362 19.4923 0.059599 0.332224 -1.279161
2008-08-25 07:54:25 51°15.798 2°47.337 19.4807 0.059599 0.332224 -1.279161
2008-08-25 07:54:31 51°15.803 2°47.307 19.4796 0.059599 0.332224 -1.279161
2008-08-25 07:54:35 51°15.807 2°47.288 19.4797 0.059599 0.332224 -1.279161
2008-08-25 07:54:41 51°15.813 2°47.258 19.4835 0.059599 0.332224 -1.279161
2008-08-25 07:54:45 51°15.818 2°47.239 19.4901 0.059599 0.33223 -1.279161
2008-08-25 07:54:50 51°15.823 2°47.214 19.4878 0.059599 0.33223 -1.279161
2008-08-25 07:54:56 51°15.83 2°47.185 19.49 0.059599 0.332236 -1.279161
2008-08-25 07:55:00 51°15.834 2°47.165 19.4833 0.059599 0.332236 -1.279161
2008-08-25 07:55:05 51°15.84 2°47.141 19.491 0.059599 0.332236 -1.279161
2008-08-25 07:55:11 51°15.846 2°47.112 19.4903 0.059908 0.334015 -1.279161
2008-08-25 07:55:16 51°15.851 2°47.087 19.493 0.059599 0.332242 -1.279161
2008-08-25 07:55:20 51°15.856 2°47.068 19.4931 0.059599 0.332242 -1.279161
2008-08-25 07:55:25 51°15.861 2°47.044 19.4908 0.059599 0.332242 -1.279161
2008-08-25 07:55:31 51°15.868 2°47.015 19.4901 0.059599 0.332242 -1.279161
2008-08-25 07:55:36 51°15.873 2°46.99 19.4988 0.059599 0.332242 -1.279161
2008-08-25 07:55:40 51°15.878 2°46.971 19.4948 0.059599 0.332248 -1.279161
2008-08-25 07:55:45 51°15.883 2°46.946 19.4961 0.059599 0.332242 -1.279161
2008-08-25 07:55:51 51°15.89 2°46.917 19.4938 0.059599 0.332248 -1.279161
2008-08-25 07:55:56 51°15.895 2°46.893 19.5024 0.059599 0.332248 -1.279161
2008-08-25 07:56:00 51°15.9 2°46.873 19.5008 0.059599 0.332248 -1.279161
2008-08-25 07:56:05 51°15.905 2°46.849 19.4911 0.059599 0.332248 -1.279161
2008-08-25 07:56:11 51°15.912 2°46.82 19.504 0.059599 0.332254 -1.279161
2008-08-25 07:56:16 51°15.918 2°46.795 19.4945 0.059805 0.333436 -1.279161
2008-08-25 07:56:20 51°15.922 2°46.776 19.4996 0.059599 0.33226 -1.279161
2008-08-25 07:56:25 51°15.927 2°46.752 19.5026 0.059599 0.33226 -1.279161
2008-08-25 07:56:30 51°15.933 2°46.727 19.5076 0.059599 0.33226 -1.279161
2008-08-25 07:56:36 51°15.939 2°46.698 19.5049 0.059599 0.33226 -1.279161
2008-08-25 07:56:40 51°15.944 2°46.679 19.505 0.059599 0.332266 -1.279161
2008-08-25 07:56:45 51°15.949 2°46.655 19.5089 0.059599 0.332266 -1.279161
2008-08-25 07:56:51 51°15.956 2°46.626 19.5062 0.059599 0.332266 -1.279161
2008-08-25 07:56:55 51°15.961 2°46.607 19.5082 0.059599 0.332272 -1.279161
2008-08-25 07:57:01 51°15.967 2°46.577 19.5058 0.059599 0.332266 -1.279161
2008-08-25 07:57:05 51°15.971 2°46.558 19.5122 0.059599 0.332266 -1.279161
2008-08-25 07:57:11 51°15.978 2°46.529 19.5022 0.059599 0.332272 -1.279161
2008-08-25 07:57:16 51°15.983 2°46.505 19.4921 0.059599 0.332272 -1.279161
2008-08-25 07:57:20 51°15.988 2°46.485 19.5022 0.059599 0.332278 -1.279161
2008-08-25 07:57:25 51°15.993 2°46.461 19.4966 0.059599 0.332266 -1.279161
2008-08-25 07:57:31 51°16.001 2°46.433 19.5049 0.059599 0.332278 -1.279161
2008-08-25 07:57:36 51°16.008 2°46.409 19.5116 0.059599 0.332278 -1.279161
2008-08-25 07:57:40 51°16.013 2°46.391 19.4981 0.059599 0.332272 -1.279161
2008-08-25 07:57:46 51°16.022 2°46.363 19.5096 0.059599 0.332284 -1.279161
2008-08-25 07:57:51 51°16.029 2°46.34 19.5167 0.059599 0.332284 -1.279161
2008-08-25 07:57:56 51°16.037 2°46.317 19.5049 0.059599 0.332284 -1.279161
2008-08-25 07:58:00 51°16.043 2°46.298 19.5164 0.059599 0.332284 -1.279161
2008-08-25 07:58:05 51°16.052 2°46.276 19.51 0.059599 0.332284 -1.279161
2008-08-25 07:58:10 51°16.06 2°46.254 19.5224 0.059599 0.33229 -1.279161
2008-08-25 07:58:16 51°16.071 2°46.226 19.5118 0.059599 0.33229 -1.279161
2008-08-25 07:58:20 51°16.077 2°46.208 19.5225 0.059599 0.332297 -1.279161
2008-08-25 07:58:25 51°16.086 2°46.186 19.5127 0.059599 0.332297 -1.279161
2008-08-25 07:58:31 51°16.096 2°46.158 19.5195 0.059599 0.332297 -1.279161
2008-08-25 07:58:36 51°16.105 2°46.136 19.5117 0.059599 0.332297 -1.279161
2008-08-25 07:58:40 51°16.111 2°46.118 19.5227 0.059599 0.332297 -1.279161
2008-08-25 07:58:45 51°16.12 2°46.095 19.5196 0.059599 0.332297 -1.279161
2008-08-25 07:58:50 51°16.129 2°46.073 19.5194 0.059599 0.332297 -1.279161
2008-08-25 07:58:55 51°16.137 2°46.05 19.5309 0.059599 0.332303 -1.279161
2008-08-25 07:59:00 51°16.146 2°46.027 19.5088 0.059599 0.332303 -1.279161
2008-08-25 07:59:05 51°16.154 2°46.004 19.5233 0.059599 0.332303 -1.279161
2008-08-25 07:59:11 51°16.164 2°45.977 19.5244 0.059599 0.332303 -1.279161
2008-08-25 07:59:15 51°16.171 2°45.958 19.5253 0.059599 0.332303 -1.279161
2008-08-25 07:59:21 51°16.181 2°45.931 19.5293 0.059599 0.332303 -1.279161
2008-08-25 07:59:25 51°16.188 2°45.913 19.5279 0.059599 0.332309 -1.279161
2008-08-25 07:59:31 51°16.198 2°45.885 19.5347 0.059599 0.332309 -1.279161
2008-08-25 07:59:36 51°16.206 2°45.862 19.5199 0.059599 0.332309 -1.279161
2008-08-25 07:59:40 51°16.213 2°45.844 19.5291 0.059599 0.332315 -1.279161
2008-08-25 07:59:46 51°16.223 2°45.816 19.529 0.059599 0.332315 -1.279161
2008-08-25 07:59:51 51°16.231 2°45.794 19.5261 0.059599 0.332321 -1.279161
2008-08-25 07:59:55 51°16.238 2°45.775 19.5348 0.059599 0.332315 -1.279161
2008-08-25 08:00:01 51°16.248 2°45.747 19.5381 0.059599 0.332321 -1.279161
2008-08-25 08:00:05 51°16.254 2°45.729 19.5334 0.059599 0.332321 -1.279161
2008-08-25 08:00:11 51°16.264 2°45.701 19.5448 0.059599 0.332327 -1.279161
2008-08-25 08:00:16 51°16.272 2°45.678 19.5268 0.059599 0.332327 -1.279161
2008-08-25 08:00:20 51°16.278 2°45.659 19.5429 0.059599 0.332327 -1.279161
2008-08-25 08:00:25 51°16.286 2°45.636 19.5255 0.059599 0.332333 -1.279161
2008-08-25 08:00:31 51°16.295 2°45.608 19.5325 0.059599 0.332327 -1.279161
2008-08-25 08:00:36 51°16.304 2°45.585 19.5343 0.059599 0.332327 -1.279161
2008-08-25 08:00:41 51°16.312 2°45.562 19.5374 0.059599 0.332327 -1.279161
2008-08-25 08:00:45 51°16.318 2°45.543 19.5451 0.059599 0.332327 -1.279161
2008-08-25 08:00:51 51°16.328 2°45.516 19.5275 0.059599 0.332333 -1.279161
2008-08-25 08:00:56 51°16.337 2°45.493 19.5467 0.059599 0.332339 -1.279161
2008-08-25 08:01:00 51°16.343 2°45.474 19.5375 0.059599 0.332339 -1.279161
2008-08-25 08:01:05 51°16.351 2°45.451 19.545 0.059599 0.332339 -1.279161
2008-08-25 08:01:10 51°16.36 2°45.428 19.532 0.059599 0.332339 -1.279161
2008-08-25 08:01:16 51°16.37 2°45.4 19.5449 0.059599 0.332345 -1.279161
2008-08-25 08:01:20 51°16.377 2°45.382 19.5534 0.059599 0.332345 -1.279161
2008-08-25 08:01:25 51°16.386 2°45.359 19.5585 0.059599 0.332351 -1.279161
2008-08-25 08:01:31 51°16.396 2°45.331 19.5528 0.059599 0.332357 -1.279161
2008-08-25 08:01:35 51°16.402 2°45.312 19.548 0.059599 0.332357 -1.279161
2008-08-25 08:01:41 51°16.412 2°45.285 19.5532 0.059599 0.332357 -1.279161
2008-08-25 08:01:45 51°16.418 2°45.266 19.5455 0.059599 0.332363 -1.279161
2008-08-25 08:01:51 51°16.427 2°45.237 19.5525 0.059599 0.332357 -1.279161
2008-08-25 08:01:56 51°16.434 2°45.214 19.5376 0.059599 0.332363 -1.279161
2008-08-25 08:02:00 51°16.44 2°45.195 19.5567 0.059599 0.332357 -1.279161
2008-08-25 08:02:05 51°16.448 2°45.171 19.5536 0.059599 0.332357 -1.279161
2008-08-25 08:02:11 51°16.457 2°45.144 19.548 0.059599 0.332357 -1.279161
2008-08-25 08:02:16 51°16.465 2°45.12 19.5556 0.059599 0.332357 -1.279161
2008-08-25 08:02:20 51°16.472 2°45.102 19.5561 0.059599 0.332357 -1.279161
2008-08-25 08:02:25 51°16.48 2°45.079 19.5601 0.059599 0.332363 -1.279161
2008-08-25 08:02:31 51°16.49 2°45.051 19.5532 0.059599 0.332363 -1.279161
2008-08-25 08:02:36 51°16.499 2°45.028 19.559 0.059599 0.332363 -1.279161
2008-08-25 08:02:40 51°16.505 2°45.009 19.5599 0.059599 0.332369 -1.279161
2008-08-25 08:02:45 51°16.514 2°44.986 19.5667 0.059599 0.332375 -1.279161
2008-08-25 08:02:51 51°16.524 2°44.959 19.5685 0.059599 0.332381 -1.279161
2008-08-25 08:02:56 51°16.532 2°44.936 19.5641 0.059599 0.332381 -1.279161
2008-08-25 08:03:00 51°16.539 2°44.918 19.5781 0.059599 0.332387 -1.279161
2008-08-25 08:03:05 51°16.548 2°44.895 19.5608 0.059599 0.332387 -1.279161
2008-08-25 08:03:11 51°16.558 2°44.867 19.5631 0.059599 0.332387 -1.279161
2008-08-25 08:03:16 51°16.566 2°44.844 19.5663 0.059599 0.332387 -1.279161
2008-08-25 08:03:21 51°16.575 2°44.821 19.5674 0.059599 0.332387 -1.279161
2008-08-25 08:03:25 51°16.581 2°44.802 19.5657 0.059599 0.332387 -1.279161
2008-08-25 08:03:30 51°16.59 2°44.779 19.5707 0.059599 0.332387 -1.279161
2008-08-25 08:03:36 51°16.6 2°44.752 19.5643 0.059599 0.332387 -1.279161
2008-08-25 08:03:40 51°16.607 2°44.733 19.5609 0.059599 0.332393 -1.279161
2008-08-25 08:03:46 51°16.617 2°44.706 19.5769 0.059599 0.332393 -1.279161
2008-08-25 08:03:51 51°16.625 2°44.682 19.5838 0.059599 0.332399 -1.279161
2008-08-25 08:03:55 51°16.632 2°44.664 19.573 0.059599 0.332399 -1.279161
2008-08-25 08:04:01 51°16.642 2°44.636 19.5679 0.059599 0.332399 -1.279161
2008-08-25 08:04:05 51°16.648 2°44.617 19.5784 0.059599 0.332399 -1.279161
2008-08-25 08:04:11 51°16.658 2°44.59 19.5805 0.059599 0.332405 -1.279161
2008-08-25 08:04:16 51°16.666 2°44.566 19.5728 0.059599 0.332405 -1.279161
2008-08-25 08:04:20 51°16.672 2°44.548 19.5859 0.059599 0.332411 -1.279161
2008-08-25 08:04:25 51°16.68 2°44.524 19.5705 0.059599 0.332411 -1.279161
2008-08-25 08:04:31 51°16.69 2°44.496 19.5844 0.059599 0.332411 -1.279161
2008-08-25 08:04:36 51°16.698 2°44.473 19.5829 0.059599 0.332411 -1.279161
2008-08-25 08:04:40 51°16.705 2°44.454 19.5811 0.059599 0.332411 -1.279161
2008-08-25 08:04:45 51°16.713 2°44.431 19.5734 0.059599 0.332417 -1.279161
2008-08-25 08:04:51 51°16.724 2°44.404 19.5946 0.059599 0.332417 -1.279161
2008-08-25 08:04:56 51°16.733 2°44.381 19.5787 0.059599 0.332423 -1.279161
2008-08-25 08:05:00 51°16.74 2°44.363 19.5951 0.059599 0.332423 -1.279161
2008-08-25 08:05:05 51°16.749 2°44.34 19.5758 0.059599 0.332423 -1.279161
2008-08-25 08:05:11 51°16.76 2°44.313 19.5991 0.059599 0.332423 -1.279161
2008-08-25 08:05:16 51°16.769 2°44.291 19.6008 0.059599 0.332429 -1.279161
2008-08-25 08:05:20 51°16.776 2°44.272 19.5846 0.059599 0.332435 -1.279161
2008-08-25 08:05:25 51°16.784 2°44.25 19.5965 0.059599 0.332435 -1.279161
2008-08-25 08:05:31 51°16.794 2°44.222 19.5846 0.059599 0.332441 -1.279161
2008-08-25 08:05:36 51°16.803 2°44.199 19.593 0.059599 0.332441 -1.279161
2008-08-25 08:05:40 51°16.809 2°44.18 19.5968 0.059599 0.332435 -1.279161
2008-08-25 08:05:45 51°16.818 2°44.157 19.5887 0.059599 0.332435 -1.279161
2008-08-25 08:05:50 51°16.826 2°44.134 19.5989 0.059599 0.332435 -1.279161
2008-08-25 08:05:56 51°16.837 2°44.106 19.5946 0.059599 0.332441 -1.279161
2008-08-25 08:06:00 51°16.843 2°44.088 19.597 0.059599 0.332441 -1.279161
2008-08-25 08:06:05 51°16.852 2°44.065 19.5867 0.059599 0.332441 -1.279161
2008-08-25 08:06:11 51°16.863 2°44.037 19.5975 0.059599 0.332441 -1.279161
2008-08-25 08:06:16 51°16.872 2°44.015 19.597 0.059599 0.332447 -1.279161
2008-08-25 08:06:20 51°16.879 2°43.997 19.5883 0.059599 0.332447 -1.279161
2008-08-25 08:06:25 51°16.888 2°43.974 19.6077 0.059599 0.332454 -1.279161
2008-08-25 08:06:31 51°16.899 2°43.946 19.606 0.059599 0.33246 -1.244337
2008-08-25 08:06:36 51°16.907 2°43.923 19.6039 0.059599 0.33246 -1.244337
2008-08-25 08:06:40 51°16.914 2°43.905 19.6027 0.059599 0.33246 -1.279161
2008-08-25 08:06:46 51°16.925 2°43.878 19.6094 0.059599 0.332466 -1.279161
2008-08-25 08:06:51 51°16.934 2°43.856 19.6057 0.059599 0.33246 -1.279161
2008-08-25 08:06:56 51°16.942 2°43.833 19.6038 0.059599 0.332466 -1.279161
2008-08-25 08:07:00 51°16.949 2°43.815 19.6016 0.059599 0.332466 -1.279161
2008-08-25 08:07:05 51°16.958 2°43.792 19.6089 0.059599 0.332466 -1.279161
2008-08-25 08:07:11 51°16.969 2°43.765 19.6128 0.059599 0.332466 -1.279161
2008-08-25 08:07:16 51°16.978 2°43.742 19.6089 0.059599 0.332472 -1.279161
2008-08-25 08:07:20 51°16.985 2°43.724 19.6098 0.059599 0.332472 -1.279161
2008-08-25 08:07:25 51°16.994 2°43.701 19.6249 0.059599 0.332472 -1.279161
2008-08-25 08:07:30 51°17.003 2°43.678 19.6139 0.059599 0.332472 -1.279161
2008-08-25 08:07:36 51°17.013 2°43.651 19.6208 0.059599 0.332472 -1.279161
2008-08-25 08:07:40 51°17.02 2°43.633 19.6194 0.059599 0.332478 -1.279161
2008-08-25 08:07:45 51°17.029 2°43.61 19.6209 0.059599 0.332484 -1.279161
2008-08-25 08:07:50 51°17.038 2°43.587 19.6246 0.059599 0.332484 -1.279161
2008-08-25 08:07:56 51°17.048 2°43.56 19.6203 0.059599 0.332484 -1.279161
2008-08-25 08:08:01 51°17.057 2°43.537 19.6267 0.059497 0.331898 -1.279161
2008-08-25 08:08:05 51°17.064 2°43.519 19.6145 0.059497 0.331898 -1.279161
2008-08-25 08:08:11 51°17.075 2°43.491 19.6205 0.059599 0.33249 -1.279161
2008-08-25 08:08:15 51°17.082 2°43.474 19.623 0.059497 0.331898 -1.279161
2008-08-25 08:08:20 51°17.091 2°43.451 19.6226 0.059497 0.331898 -1.279161
2008-08-25 08:08:25 51°17.1 2°43.429 19.6286 0.059497 0.331904 -1.279161
2008-08-25 08:08:31 51°17.112 2°43.402 19.6245 0.059497 0.33191 -1.279161
2008-08-25 08:08:36 51°17.121 2°43.38 19.6231 0.059497 0.33191 -1.279161
2008-08-25 08:08:41 51°17.13 2°43.358 19.6226 0.059599 0.332502 -1.279161
2008-08-25 08:08:45 51°17.138 2°43.341 19.6353 0.059497 0.33191 -1.279161
2008-08-25 08:08:51 51°17.15 2°43.314 19.6372 0.059497 0.33191 -1.279161
2008-08-25 08:08:56 51°17.159 2°43.292 19.6322 0.059497 0.331916 -1.279161
2008-08-25 08:09:00 51°17.167 2°43.275 19.6301 0.059497 0.331916 -1.279161
2008-08-25 08:09:06 51°17.178 2°43.248 19.6357 0.059497 0.331916 -1.279161
2008-08-25 08:09:11 51°17.187 2°43.227 19.6306 0.059599 0.332508 -1.279161
2008-08-25 08:09:16 51°17.196 2°43.205 19.6378 0.059497 0.331916 -1.279161
2008-08-25 08:09:20 51°17.204 2°43.187 19.6396 0.059497 0.331922 -1.279161
2008-08-25 08:09:25 51°17.213 2°43.165 19.6353 0.059497 0.331922 -1.279161
2008-08-25 08:09:31 51°17.225 2°43.139 19.6356 0.059497 0.331922 -1.279161
2008-08-25 08:09:36 51°17.234 2°43.117 19.6388 0.059497 0.331922 -1.279161
2008-08-25 08:09:41 51°17.244 2°43.095 19.6481 0.059497 0.331929 -1.279161
2008-08-25 08:09:45 51°17.251 2°43.078 19.639 0.059497 0.331929 -1.279161
2008-08-25 08:09:51 51°17.263 2°43.051 19.6346 0.059497 0.331935 -1.279161
2008-08-25 08:09:56 51°17.272 2°43.03 19.646 0.059497 0.331935 -1.279161
2008-08-25 08:10:00 51°17.28 2°43.012 19.6409 0.059497 0.331941 -1.279161
2008-08-25 08:10:05 51°17.289 2°42.99 19.6489 0.059497 0.331941 -1.279161
2008-08-25 08:10:10 51°17.299 2°42.969 19.6384 0.059497 0.331935 -1.279161
2008-08-25 08:10:16 51°17.31 2°42.942 19.6479 0.059497 0.331935 -1.279161
2008-08-25 08:10:21 51°17.32 2°42.921 19.6556 0.059497 0.331935 -1.279161
2008-08-25 08:10:25 51°17.328 2°42.904 19.6479 0.059497 0.331941 -1.279161
2008-08-25 08:10:31 51°17.34 2°42.879 19.6514 0.059497 0.331947 -1.279161
2008-08-25 08:10:36 51°17.35 2°42.857 19.6554 0.059497 0.331947 -1.279161
2008-08-25 08:10:40 51°17.358 2°42.841 19.6461 0.059497 0.331941 -1.279161
2008-08-25 08:10:45 51°17.368 2°42.82 19.6501 0.059497 0.331947 -1.279161
2008-08-25 08:10:51 51°17.381 2°42.795 19.647 0.059497 0.331947 -1.279161
2008-08-25 08:10:56 51°17.391 2°42.774 19.6572 0.059497 0.331947 -1.279161
2008-08-25 08:11:00 51°17.4 2°42.758 19.6556 0.059497 0.331953 -1.279161
2008-08-25 08:11:05 51°17.411 2°42.737 19.6596 0.059497 0.331953 -1.279161
2008-08-25 08:11:11 51°17.424 2°42.713 19.662 0.059497 0.331947 -1.279161
2008-08-25 08:11:16 51°17.436 2°42.693 19.6543 0.059497 0.331953 -1.279161
2008-08-25 08:11:20 51°17.444 2°42.676 19.6664 0.059497 0.331953 -1.279161
2008-08-25 08:11:26 51°17.457 2°42.651 19.6664 0.059497 0.331959 -1.279161
2008-08-25 08:11:31 51°17.468 2°42.63 19.6724 0.059497 0.331965 -1.279161
2008-08-25 08:11:36 51°17.478 2°42.609 19.6675 0.059497 0.331965 -1.279161
2008-08-25 08:11:40 51°17.487 2°42.592 19.6567 0.059497 0.331959 -1.279161
2008-08-25 08:11:45 51°17.497 2°42.571 19.6556 0.059497 0.331965 -1.279161
2008-08-25 08:11:51 51°17.509 2°42.545 19.6597 0.059497 0.331959 -1.279161
2008-08-25 08:11:56 51°17.519 2°42.524 19.6689 0.059497 0.331959 -1.279161
2008-08-25 08:12:00 51°17.528 2°42.507 19.669 0.059497 0.331959 -1.279161
2008-08-25 08:12:05 51°17.538 2°42.486 19.6686 0.059497 0.331959 -1.279161
2008-08-25 08:12:11 51°17.551 2°42.461 19.6688 0.059497 0.331959 -1.279161
2008-08-25 08:12:16 51°17.562 2°42.44 19.6723 0.059497 0.331959 -1.279161
2008-08-25 08:12:20 51°17.571 2°42.423 19.6791 0.059497 0.331965 -1.279161
2008-08-25 08:12:25 51°17.581 2°42.403 19.6761 0.059497 0.331965 -1.279161
2008-08-25 08:12:31 51°17.594 2°42.378 19.6802 0.059497 0.331971 -1.279161
2008-08-25 08:12:36 51°17.604 2°42.357 19.6729 0.059497 0.331971 -1.279161
2008-08-25 08:12:41 51°17.614 2°42.336 19.6804 0.059497 0.331971 -1.279161
2008-08-25 08:12:45 51°17.623 2°42.319 19.6732 0.059497 0.331965 -1.279161
2008-08-25 08:12:50 51°17.633 2°42.298 19.6842 0.059497 0.331971 -1.279161
2008-08-25 08:12:56 51°17.645 2°42.273 19.6676 0.059497 0.331965 -1.279161
2008-08-25 08:13:00 51°17.653 2°42.257 19.6788 0.059497 0.331971 -1.279161
2008-08-25 08:13:05 51°17.664 2°42.235 19.6784 0.059497 0.331971 -1.279161
2008-08-25 08:13:11 51°17.675 2°42.21 19.6869 0.059497 0.331965 -1.279161
2008-08-25 08:13:16 51°17.685 2°42.189 19.6712 0.059497 0.331971 -1.279161
2008-08-25 08:13:20 51°17.693 2°42.171 19.6887 0.059497 0.331965 -1.279161
2008-08-25 08:13:26 51°17.706 2°42.147 19.6762 0.059497 0.331965 -1.279161
2008-08-25 08:13:31 51°17.716 2°42.125 19.6873 0.059497 0.331959 -1.279161
2008-08-25 08:13:36 51°17.727 2°42.105 19.6717 0.059497 0.331959 -1.279161
2008-08-25 08:13:40 51°17.735 2°42.088 19.6848 0.059497 0.331959 -1.279161
2008-08-25 08:13:45 51°17.747 2°42.069 19.6913 0.059497 0.331959 -1.279161
2008-08-25 08:13:51 51°17.76 2°42.045 19.685 0.059497 0.331965 -1.279161
2008-08-25 08:13:56 51°17.772 2°42.025 19.6916 0.059497 0.331965 -1.279161
2008-08-25 08:14:00 51°17.781 2°42.009 19.6983 0.059497 0.331965 -1.279161
2008-08-25 08:14:05 51°17.792 2°41.989 19.6909 0.059497 0.331965 -1.279161
2008-08-25 08:14:11 51°17.806 2°41.965 19.6967 0.059497 0.331959 -1.279161
2008-08-25 08:14:16 51°17.817 2°41.945 19.685 0.059497 0.331965 -1.279161
2008-08-25 08:14:20 51°17.826 2°41.928 19.7009 0.059497 0.331965 -1.279161
2008-08-25 08:14:25 51°17.838 2°41.908 19.6969 0.059497 0.331965 -1.279161
2008-08-25 08:14:31 51°17.851 2°41.884 19.7034 0.059497 0.331971 -1.279161
2008-08-25 08:14:36 51°17.862 2°41.864 19.7003 0.059497 0.331971 -1.279161
2008-08-25 08:14:40 51°17.871 2°41.848 19.7142 0.059497 0.331965 -1.279161
2008-08-25 08:14:45 51°17.882 2°41.827 19.6955 0.059497 0.331965 -1.279161
2008-08-25 08:14:51 51°17.895 2°41.803 19.7072 0.059497 0.331965 -1.279161
2008-08-25 08:14:55 51°17.904 2°41.786 19.6923 0.059497 0.331959 -1.279161
2008-08-25 08:15:01 51°17.916 2°41.761 19.7093 0.059497 0.331959 -1.279161
2008-08-25 08:15:05 51°17.925 2°41.744 19.7043 0.059497 0.331959 -1.279161
2008-08-25 08:15:10 51°17.935 2°41.723 19.7131 0.059497 0.331953 -1.279161
2008-08-25 08:15:16 51°17.948 2°41.698 19.715 0.059497 0.331953 -1.279161
2008-08-25 08:15:20 51°17.957 2°41.681 19.7025 0.059497 0.331953 -1.279161
2008-08-25 08:15:25 51°17.967 2°41.66 19.7133 0.059497 0.331953 -1.279161
2008-08-25 08:15:31 51°17.979 2°41.634 19.7163 0.059497 0.331953 -1.279161
2008-08-25 08:15:36 51°17.989 2°41.613 19.7104 0.059497 0.331953 -1.279161
2008-08-25 08:15:40 51°17.998 2°41.596 19.7133 0.059497 0.331953 -1.279161
2008-08-25 08:15:46 51°18.01 2°41.57 19.7238 0.059497 0.331953 -1.279161
2008-08-25 08:15:51 51°18.02 2°41.549 19.712 0.059497 0.331947 -1.279161
2008-08-25 08:15:56 51°18.03 2°41.528 19.7181 0.059497 0.331947 -1.279161
2008-08-25 08:16:00 51°18.038 2°41.511 19.7187 0.059497 0.331947 -1.279161
2008-08-25 08:16:05 51°18.049 2°41.49 19.7079 0.059497 0.331947 -1.279161
2008-08-25 08:16:11 51°18.061 2°41.465 19.7231 0.059497 0.331941 -1.279161
2008-08-25 08:16:16 51°18.072 2°41.445 19.7106 0.059497 0.331941 -1.279161
2008-08-25 08:16:20 51°18.081 2°41.428 19.7121 0.059497 0.331941 -1.279161
2008-08-25 08:16:25 51°18.091 2°41.407 19.7266 0.059497 0.331941 -1.279161
2008-08-25 08:16:31 51°18.104 2°41.382 19.7316 0.059599 0.332526 -1.279161
2008-08-25 08:16:36 51°18.115 2°41.361 19.726 0.059599 0.332526 -1.279161
2008-08-25 08:16:40 51°18.123 2°41.344 19.7348 0.059497 0.331935 -1.279161
2008-08-25 08:16:45 51°18.134 2°41.324 19.7314 0.059497 0.331941 -1.279161
2008-08-25 08:16:50 51°18.144 2°41.303 19.7344 0.059497 0.331935 -1.279161
2008-08-25 08:16:56 51°18.156 2°41.277 19.7298 0.059497 0.331929 -1.279161
2008-08-25 08:17:00 51°18.165 2°41.261 19.7203 0.059497 0.331929 -1.279161
2008-08-25 08:17:05 51°18.175 2°41.24 19.7348 0.059497 0.331929 -1.279161
2008-08-25 08:17:11 51°18.187 2°41.215 19.7282 0.059497 0.331929 -1.279161
2008-08-25 08:17:15 51°18.195 2°41.198 19.7397 0.059497 0.331929 -1.279161
2008-08-25 08:17:21 51°18.207 2°41.172 19.7277 0.059497 0.331929 -1.279161
2008-08-25 08:17:25 51°18.215 2°41.155 19.7324 0.059497 0.331922 -1.279161
2008-08-25 08:17:31 51°18.227 2°41.13 19.7318 0.059497 0.331922 -1.279161
2008-08-25 08:17:36 51°18.238 2°41.109 19.7284 0.059497 0.331922 -1.279161
2008-08-25 08:17:41 51°18.248 2°41.088 19.7421 0.059497 0.331916 -1.279161
2008-08-25 08:17:45 51°18.257 2°41.072 19.7411 0.059497 0.331922 -1.279161
2008-08-25 08:17:51 51°18.269 2°41.047 19.7504 0.059497 0.331916 -1.279161
2008-08-25 08:17:56 51°18.28 2°41.027 19.7384 0.059497 0.331916 -1.279161
2008-08-25 08:18:00 51°18.288 2°41.011 19.7554 0.059497 0.331916 -1.279161
2008-08-25 08:18:05 51°18.299 2°40.991 19.7405 0.059497 0.331916 -1.279161
2008-08-25 08:18:11 51°18.312 2°40.967 19.754 0.059497 0.331916 -1.279161
2008-08-25 08:18:16 51°18.323 2°40.947 19.7491 0.059497 0.331922 -1.279161
2008-08-25 08:18:20 51°18.332 2°40.931 19.7568 0.059497 0.331916 -1.279161
2008-08-25 08:18:25 51°18.342 2°40.911 19.7574 0.059497 0.331922 -1.279161
2008-08-25 08:18:31 51°18.354 2°40.887 19.752 0.059497 0.331916 -1.279161
2008-08-25 08:18:36 51°18.364 2°40.866 19.7582 0.059497 0.331916 -1.279161
2008-08-25 08:18:40 51°18.372 2°40.849 19.7484 0.059497 0.331922 -1.279161
2008-08-25 08:18:45 51°18.382 2°40.829 19.7609 0.059497 0.33191 -1.279161
2008-08-25 08:18:51 51°18.394 2°40.804 19.7593 0.059497 0.33191 -1.279161
2008-08-25 08:18:56 51°18.403 2°40.783 19.7581 0.059497 0.33191 -1.279161
2008-08-25 08:19:01 51°18.413 2°40.762 19.7524 0.059497 0.33191 -1.279161
2008-08-25 08:19:05 51°18.421 2°40.744 19.7472 0.059497 0.33191 -1.279161
2008-08-25 08:19:10 51°18.43 2°40.723 19.7562 0.059497 0.33191 -1.279161
2008-08-25 08:19:16 51°18.441 2°40.697 19.758 0.059497 0.33191 -1.279161
2008-08-25 08:19:21 51°18.45 2°40.675 19.7629 0.059497 0.33191 -1.279161
2008-08-25 08:19:25 51°18.458 2°40.657 19.7537 0.059497 0.33191 -1.279161
2008-08-25 08:19:31 51°18.469 2°40.631 19.7702 0.059497 0.33191 -1.279161
2008-08-25 08:19:36 51°18.478 2°40.61 19.7581 0.059497 0.33191 -1.279161
2008-08-25 08:19:40 51°18.486 2°40.592 19.7657 0.059497 0.33191 -1.279161
2008-08-25 08:19:45 51°18.495 2°40.571 19.7678 0.059497 0.33191 -1.279161
2008-08-25 08:19:51 51°18.506 2°40.544 19.7622 0.059497 0.33191 -1.279161
2008-08-25 08:19:56 51°18.515 2°40.522 19.7627 0.059497 0.331904 -1.279161
2008-08-25 08:20:00 51°18.522 2°40.505 19.7744 0.059497 0.331904 -1.279161
2008-08-25 08:20:05 51°18.532 2°40.483 19.7749 0.059497 0.331904 -1.279161
2008-08-25 08:20:11 51°18.543 2°40.457 19.7712 0.059497 0.33191 -1.279161
2008-08-25 08:20:16 51°18.552 2°40.436 19.7722 0.059497 0.33191 -1.279161
2008-08-25 08:20:20 51°18.56 2°40.419 19.7739 0.059497 0.33191 -1.279161
2008-08-25 08:20:26 51°18.572 2°40.394 19.7815 0.059497 0.33191 -1.279161
2008-08-25 08:20:31 51°18.581 2°40.373 19.7866 0.059497 0.33191 -1.279161
2008-08-25 08:20:36 51°18.591 2°40.352 19.7839 0.059497 0.33191 -1.279161
2008-08-25 08:20:41 51°18.6 2°40.33 19.7676 0.059497 0.33191 -1.279161
2008-08-25 08:20:45 51°18.607 2°40.313 19.7865 0.059497 0.331904 -1.279161
2008-08-25 08:20:51 51°18.618 2°40.287 19.7828 0.059497 0.33191 -1.279161
2008-08-25 08:20:56 51°18.628 2°40.265 19.7876 0.059497 0.331904 -1.279161
2008-08-25 08:21:00 51°18.635 2°40.247 19.7904 0.059497 0.33191 -1.279161
2008-08-25 08:21:05 51°18.645 2°40.226 19.7837 0.059497 0.33191 -1.279161
2008-08-25 08:21:11 51°18.656 2°40.199 19.7784 0.059497 0.331904 -1.279161
2008-08-25 08:21:16 51°18.665 2°40.177 19.7945 0.059497 0.331904 -1.279161
2008-08-25 08:21:20 51°18.673 2°40.16 19.7937 0.059497 0.33191 -1.279161
2008-08-25 08:21:25 51°18.682 2°40.137 19.79 0.059497 0.33191 -1.279161
2008-08-25 08:21:31 51°18.694 2°40.111 19.7914 0.059497 0.33191 -1.279161
2008-08-25 08:21:36 51°18.704 2°40.089 19.7933 0.059497 0.33191 -1.279161
2008-08-25 08:21:41 51°18.714 2°40.068 19.7804 0.059497 0.331904 -1.279161
2008-08-25 08:21:45 51°18.722 2°40.051 19.7952 0.059497 0.331904 -1.279161
2008-08-25 08:21:50 51°18.733 2°40.03 19.7995 0.059497 0.331904 -1.279161
2008-08-25 08:21:56 51°18.746 2°40.005 19.7905 0.059497 0.33191 -1.279161
2008-08-25 08:22:00 51°18.754 2°39.988 19.7988 0.059497 0.33191 -1.279161
2008-08-25 08:22:05 51°18.765 2°39.967 19.7969 0.059497 0.33191 -1.279161
2008-08-25 08:22:11 51°18.778 2°39.942 19.7862 0.059497 0.33191 -1.279161
2008-08-25 08:22:16 51°18.789 2°39.921 19.8022 0.059497 0.331916 -1.279161
2008-08-25 08:22:21 51°18.8 2°39.9 19.7874 0.059497 0.331916 -1.279161
2008-08-25 08:22:25 51°18.808 2°39.883 19.7963 0.059497 0.331916 -1.279161
2008-08-25 08:22:31 51°18.82 2°39.857 19.7898 0.059497 0.331916 -1.279161
2008-08-25 08:22:36 51°18.83 2°39.835 19.8093 0.059497 0.331916 -1.279161
2008-08-25 08:22:40 51°18.838 2°39.818 19.8024 0.059497 0.331916 -1.279161
2008-08-25 08:22:46 51°18.85 2°39.793 19.7989 0.059497 0.33191 -1.279161
2008-08-25 08:22:51 51°18.86 2°39.771 19.8058 0.059497 0.33191 -1.279161
2008-08-25 08:22:56 51°18.87 2°39.75 19.8094 0.059497 0.331916 -1.279161
2008-08-25 08:23:00 51°18.879 2°39.733 19.7995 0.059497 0.331916 -1.279161
2008-08-25 08:23:05 51°18.888 2°39.711 19.819 0.059497 0.331916 -1.279161
2008-08-25 08:23:11 51°18.899 2°39.684 19.8178 0.059497 0.331922 -1.279161
2008-08-25 08:23:16 51°18.908 2°39.661 19.8048 0.059497 0.331922 -1.279161
2008-08-25 08:23:20 51°18.914 2°39.643 19.8245 0.059497 0.331922 -1.279161
2008-08-25 08:23:25 51°18.923 2°39.62 19.8158 0.059497 0.331922 -1.279161
2008-08-25 08:23:31 51°18.933 2°39.593 19.8249 0.059497 0.331922 -1.279161
2008-08-25 08:23:36 51°18.941 2°39.569 19.8209 0.059497 0.331922 -1.279161
2008-08-25 08:23:40 51°18.947 2°39.551 19.8131 0.059497 0.331916 -1.279161
2008-08-25 08:23:45 51°18.955 2°39.527 19.8112 0.059497 0.331916 -1.279161
2008-08-25 08:23:51 51°18.964 2°39.5 19.8286 0.059497 0.331916 -1.279161
2008-08-25 08:23:56 51°18.972 2°39.477 19.8121 0.059497 0.331922 -1.279161
2008-08-25 08:24:01 51°18.98 2°39.453 19.8232 0.059497 0.331922 -1.279161
2008-08-25 08:24:05 51°18.986 2°39.434 19.8061 0.059497 0.331922 -1.279161
2008-08-25 08:24:10 51°18.993 2°39.411 19.8308 0.059497 0.331916 -1.279161
2008-08-25 08:24:16 51°19.003 2°39.383 19.8123 0.059497 0.331922 -1.279161
2008-08-25 08:24:20 51°19.009 2°39.364 19.8206 0.059599 0.332508 -1.279161
2008-08-25 08:24:26 51°19.018 2°39.337 19.817 0.059497 0.331922 -1.279161
2008-08-25 08:24:31 51°19.026 2°39.313 19.8265 0.059497 0.331922 -1.279161
2008-08-25 08:24:35 51°19.033 2°39.295 19.8375 0.059497 0.331922 -1.279161
2008-08-25 08:24:40 51°19.041 2°39.272 19.8283 0.059497 0.331922 -1.279161
2008-08-25 08:24:45 51°19.049 2°39.249 19.8243 0.059497 0.331922 -1.279161
2008-08-25 08:24:51 51°19.059 2°39.222 19.8399 0.059497 0.331922 -1.279161
2008-08-25 08:24:56 51°19.067 2°39.199 19.8267 0.059497 0.331929 -1.279161
2008-08-25 08:25:00 51°19.074 2°39.18 19.8275 0.059497 0.331929 -1.279161
2008-08-25 08:25:06 51°19.084 2°39.153 19.8403 0.059497 0.331929 -1.279161
2008-08-25 08:25:11 51°19.092 2°39.13 19.8276 0.059497 0.331929 -1.279161
2008-08-25 08:25:16 51°19.101 2°39.107 19.8429 0.059497 0.331929 -1.279161
2008-08-25 08:25:20 51°19.107 2°39.089 19.845 0.059497 0.331935 -1.279161
2008-08-25 08:25:25 51°19.115 2°39.066 19.8423 0.059497 0.331935 -1.279161
2008-08-25 08:25:31 51°19.125 2°39.039 19.8424 0.059497 0.331935 -1.279161
2008-08-25 08:25:36 51°19.133 2°39.015 19.8472 0.059497 0.331935 -1.279161
2008-08-25 08:25:41 51°19.141 2°38.992 19.8336 0.059497 0.331935 -1.279161
2008-08-25 08:25:45 51°19.148 2°38.973 19.8332 0.059497 0.331935 -1.279161
2008-08-25 08:25:51 51°19.158 2°38.946 19.8407 0.059599 0.332526 -1.279161
2008-08-25 08:25:56 51°19.166 2°38.922 19.8452 0.059497 0.331935 -1.279161
2008-08-25 08:26:00 51°19.172 2°38.904 19.8447 0.059497 0.331935 -1.279161
2008-08-25 08:26:05 51°19.181 2°38.882 19.8453 0.059497 0.331935 -1.279161
2008-08-25 08:26:11 51°19.191 2°38.855 19.8398 0.059497 0.331935 -1.279161
2008-08-25 08:26:15 51°19.198 2°38.837 19.8591 0.059497 0.331935 -1.279161
2008-08-25 08:26:21 51°19.209 2°38.809 19.8497 0.059497 0.331941 -1.279161
2008-08-25 08:26:25 51°19.215 2°38.791 19.8623 0.059497 0.331941 -1.279161
2008-08-25 08:26:31 51°19.226 2°38.764 19.8608 0.059497 0.331947 -1.279161
2008-08-25 08:26:36 51°19.234 2°38.741 19.8541 0.059497 0.331947 -1.279161
2008-08-25 08:26:40 51°19.241 2°38.722 19.8484 0.059599 0.332538 -1.279161
2008-08-25 08:26:46 51°19.251 2°38.695 19.8622 0.059497 0.331947 -1.279161
2008-08-25 08:26:51 51°19.26 2°38.672 19.8584 0.059497 0.331947 -1.279161
2008-08-25 08:26:55 51°19.266 2°38.653 19.8557 0.059497 0.331947 -1.279161
2008-08-25 08:27:00 51°19.275 2°38.631 19.8443 0.059497 0.331947 -1.279161
2008-08-25 08:27:05 51°19.283 2°38.607 19.8696 0.059497 0.331947 -1.279161
2008-08-25 08:27:11 51°19.293 2°38.58 19.8519 0.059497 0.331947 -1.279161
2008-08-25 08:27:16 51°19.302 2°38.557 19.8709 0.059497 0.331947 -1.279161
2008-08-25 08:27:20 51°19.309 2°38.538 19.8684 0.059497 0.331947 -1.279161
2008-08-25 08:27:25 51°19.317 2°38.515 19.8643 0.059497 0.331947 -1.279161
2008-08-25 08:27:31 51°19.328 2°38.488 19.8651 0.059497 0.331947 -1.279161
2008-08-25 08:27:36 51°19.336 2°38.465 19.8672 0.059497 0.331947 -1.279161
2008-08-25 08:27:40 51°19.344 2°38.447 19.8733 0.059497 0.331953 -1.279161
2008-08-25 08:27:45 51°19.352 2°38.424 19.8735 0.059497 0.331953 -1.279161
2008-08-25 08:27:51 51°19.362 2°38.396 19.8694 0.059497 0.331959 -1.279161
2008-08-25 08:27:56 51°19.371 2°38.373 19.8751 0.059497 0.331953 -1.279161
2008-08-25 08:28:00 51°19.377 2°38.354 19.8766 0.059497 0.331953 -1.279161
2008-08-25 08:28:05 51°19.386 2°38.332 19.8723 0.059497 0.331953 -1.279161
2008-08-25 08:28:11 51°19.397 2°38.304 19.88 0.059497 0.331953 -1.279161
2008-08-25 08:28:16 51°19.406 2°38.282 19.8639 0.059497 0.331959 -1.279161
2008-08-25 08:28:20 51°19.413 2°38.264 19.882 0.059497 0.331959 -1.279161
2008-08-25 08:28:25 51°19.423 2°38.241 19.8694 0.059497 0.331959 -1.279161
2008-08-25 08:28:31 51°19.434 2°38.214 19.8752 0.059497 0.331959 -1.279161
2008-08-25 08:28:36 51°19.443 2°38.192 19.8825 0.059497 0.331959 -1.279161
2008-08-25 08:28:41 51°19.452 2°38.169 19.8826 0.059497 0.331965 -1.279161
2008-08-25 08:28:45 51°19.46 2°38.151 19.8719 0.059497 0.331965 -1.279161
2008-08-25 08:28:51 51°19.47 2°38.124 19.9012 0.059497 0.331965 -1.279161
2008-08-25 08:28:56 51°19.479 2°38.102 19.8833 0.059497 0.331971 -1.279161
2008-08-25 08:29:00 51°19.487 2°38.084 19.8914 0.059497 0.331965 -1.279161
2008-08-25 08:29:05 51°19.495 2°38.061 19.8858 0.059497 0.331965 -1.279161
2008-08-25 08:29:11 51°19.506 2°38.034 19.8849 0.059497 0.331971 -1.279161
2008-08-25 08:29:16 51°19.515 2°38.011 19.8966 0.059497 0.331965 -1.279161
2008-08-25 08:29:20 51°19.522 2°37.994 19.8903 0.059497 0.331971 -1.279161
2008-08-25 08:29:26 51°19.533 2°37.966 19.8967 0.059497 0.331971 -1.279161
2008-08-25 08:29:31 51°19.542 2°37.944 19.8965 0.059497 0.331971 -1.279161
2008-08-25 08:29:36 51°19.551 2°37.921 19.899 0.059497 0.331971 -1.279161
2008-08-25 08:29:40 51°19.558 2°37.903 19.8846 0.059497 0.331971 -1.279161
2008-08-25 08:29:45 51°19.567 2°37.881 19.9041 0.059497 0.331971 -1.279161
2008-08-25 08:29:51 51°19.578 2°37.854 19.8991 0.059497 0.331971 -1.279161
2008-08-25 08:29:56 51°19.587 2°37.832 19.899 0.059497 0.331971 -1.279161
2008-08-25 08:30:00 51°19.594 2°37.814 19.9043 0.059497 0.331977 -1.279161
2008-08-25 08:30:05 51°19.604 2°37.791 19.897 0.059497 0.331977 -1.279161
2008-08-25 08:30:11 51°19.614 2°37.765 19.9144 0.059497 0.331977 -1.279161
2008-08-25 08:30:16 51°19.624 2°37.743 19.8976 0.059497 0.331977 -1.279161
2008-08-25 08:30:20 51°19.631 2°37.725 19.9111 0.059497 0.331977 -1.279161
2008-08-25 08:30:25 51°19.64 2°37.702 19.8977 0.059497 0.331983 -1.279161
2008-08-25 08:30:31 51°19.651 2°37.676 19.904 0.059497 0.331983 -1.279161
2008-08-25 08:30:36 51°19.66 2°37.655 19.9049 0.059497 0.331983 -1.279161
2008-08-25 08:30:40 51°19.667 2°37.638 19.9025 0.059497 0.331983 -1.279161
2008-08-25 08:30:45 51°19.675 2°37.617 19.907 0.059497 0.331983 -1.279161
2008-08-25 08:30:51 51°19.685 2°37.593 19.9069 0.059497 0.331989 -1.279161
2008-08-25 08:30:55 51°19.692 2°37.578 19.9205 0.059497 0.331983 -1.279161
2008-08-25 08:31:01 51°19.702 2°37.554 19.9196 0.059497 0.331989 -1.279161
2008-08-25 08:31:05 51°19.708 2°37.539 19.9281 0.059497 0.331989 -1.279161
2008-08-25 08:31:11 51°19.718 2°37.516 19.9111 0.059497 0.331989 -1.279161
2008-08-25 08:31:16 51°19.726 2°37.497 19.924 0.059497 0.331989 -1.244337
2008-08-25 08:31:20 51°19.732 2°37.482 19.9139 0.059497 0.331989 -1.279161
2008-08-25 08:31:25 51°19.74 2°37.462 19.9283 0.059497 0.331989 -1.279161
2008-08-25 08:31:31 51°19.75 2°37.439 19.9253 0.059497 0.331989 -1.279161
2008-08-25 08:31:36 51°19.757 2°37.42 19.9167 0.059497 0.331989 -1.279161
2008-08-25 08:31:40 51°19.764 2°37.404 19.9113 0.059497 0.331989 -1.279161
2008-08-25 08:31:46 51°19.773 2°37.382 19.9319 0.059497 0.331989 -1.279161
2008-08-25 08:31:51 51°19.781 2°37.362 19.9192 0.059497 0.331995 -1.279161
2008-08-25 08:31:56 51°19.788 2°37.343 19.9244 0.059497 0.331995 -1.279161
2008-08-25 08:32:00 51°19.794 2°37.329 19.9271 0.059497 0.331995 -1.313985
2008-08-25 08:32:05 51°19.801 2°37.311 19.9182 0.059497 0.331995 -1.313985
2008-08-25 08:32:11 51°19.81 2°37.29 19.9366 0.059497 0.332001 -1.279161
2008-08-25 08:32:16 51°19.817 2°37.274 19.9416 0.059497 0.332001 -1.279161
2008-08-25 08:32:20 51°19.823 2°37.261 19.9376 0.059497 0.332001 -1.279161
2008-08-25 08:32:25 51°19.829 2°37.245 19.9439 0.059497 0.332001 -1.313985
2008-08-25 08:32:31 51°19.837 2°37.227 19.9313 0.059497 0.332007 -1.279161
2008-08-25 08:32:36 51°19.844 2°37.212 19.9459 0.059497 0.332007 -1.279161
2008-08-25 08:32:40 51°19.849 2°37.2 19.9342 0.059497 0.332001 -1.279161
2008-08-25 08:32:45 51°19.856 2°37.185 19.9394 0.059497 0.332001 -1.279161
2008-08-25 08:32:51 51°19.864 2°37.168 19.9398 0.059497 0.332007 -1.279161
2008-08-25 08:32:56 51°19.87 2°37.153 19.941 0.059497 0.332007 -1.313985
2008-08-25 08:33:00 51°19.875 2°37.142 19.9368 0.059497 0.332007 -1.313985
2008-08-25 08:33:05 51°19.882 2°37.128 19.9513 0.059497 0.332007 -1.313985
2008-08-25 08:33:11 51°19.89 2°37.111 19.9396 0.059497 0.332007 -1.279161
2008-08-25 08:33:16 51°19.896 2°37.097 19.9541 0.059497 0.332007 -1.313985
2008-08-25 08:33:21 51°19.902 2°37.083 19.9531 0.059497 0.332013 -1.279161
2008-08-25 08:33:25 51°19.907 2°37.072 19.9443 0.059497 0.332007 -1.313985
2008-08-25 08:33:31 51°19.915 2°37.055 19.9504 0.059497 0.332013 -1.279161
2008-08-25 08:33:36 51°19.921 2°37.041 19.9459 0.059497 0.332013 -1.279161
2008-08-25 08:33:40 51°19.926 2°37.029 19.9441 0.059497 0.332013 -1.313985
2008-08-25 08:33:46 51°19.934 2°37.013 19.9534 0.059497 0.332013 -1.313985
2008-08-25 08:33:51 51°19.94 2°37 19.9364 0.059497 0.332013 -1.279161
2008-08-25 08:33:55 51°19.944 2°36.99 19.9444 0.059497 0.332013 -1.313985
2008-08-25 08:34:01 51°19.951 2°36.976 19.9582 0.059497 0.332013 -1.279161
2008-08-25 08:34:05 51°19.956 2°36.967 19.9581 0.059497 0.332013 -1.279161
2008-08-25 08:34:11 51°19.962 2°36.955 19.9366 0.059497 0.332019 -1.279161
2008-08-25 08:34:16 51°19.968 2°36.945 19.952 0.059497 0.332013 -1.279161
2008-08-25 08:34:20 51°19.972 2°36.939 19.9539 0.059497 0.332007 -1.279161
2008-08-25 08:34:25 51°19.978 2°36.931 19.9518 0.059497 0.332007 -1.279161
2008-08-25 08:34:31 51°19.985 2°36.924 19.9446 0.059497 0.332007 -1.279161
2008-08-25 08:34:36 51°19.991 2°36.919 19.9682 0.059497 0.332007 -1.279161
2008-08-25 08:34:41 51°19.997 2°36.915 19.9728 0.059497 0.332013 -1.313985
2008-08-25 08:34:45 51°20.001 2°36.913 19.954 0.059497 0.332019 -1.279161
2008-08-25 08:34:51 51°20.008 2°36.91 19.958 0.059497 0.332031 -1.279161
2008-08-25 08:34:56 51°20.013 2°36.907 19.9765 0.059497 0.332037 -1.279161
2008-08-25 08:35:00 51°20.017 2°36.906 19.9796 0.059497 0.332043 -1.279161
2008-08-25 08:35:05 51°20.022 2°36.904 19.9727 0.059497 0.332043 -1.279161
2008-08-25 08:35:11 51°20.027 2°36.902 19.9698 0.059497 0.332043 -1.313985
2008-08-25 08:35:16 51°20.032 2°36.9 19.9804 0.059497 0.332043 -1.279161
2008-08-25 08:35:21 51°20.036 2°36.899 19.9796 0.059497 0.332037 -1.313985
2008-08-25 08:35:25 51°20.039 2°36.898 19.9803 0.059497 0.332031 -1.279161
2008-08-25 08:35:31 51°20.044 2°36.898 19.975 0.059497 0.332031 -1.279161
2008-08-25 08:35:36 51°20.047 2°36.897 19.9821 0.059497 0.332031 -1.279161
2008-08-25 08:35:41 51°20.051 2°36.897 19.9686 0.059497 0.332031 -1.279161
2008-08-25 08:35:45 51°20.053 2°36.896 19.9705 0.059497 0.332031 -1.279161
2008-08-25 08:35:51 51°20.057 2°36.895 19.9653 0.059497 0.332031 -1.313985
2008-08-25 08:35:56 51°20.06 2°36.895 19.9738 0.059497 0.332031 -1.279161
2008-08-25 08:36:00 51°20.063 2°36.894 19.9806 0.059497 0.332031 -1.313985
2008-08-25 08:36:05 51°20.066 2°36.894 19.9759 0.059497 0.332031 -1.313985
2008-08-25 08:36:11 51°20.069 2°36.894 19.9828 0.059497 0.332031 -1.279161
2008-08-25 08:36:16 51°20.072 2°36.893 19.982 0.059497 0.332037 -1.313985
2008-08-25 08:36:20 51°20.074 2°36.893 19.9847 0.059497 0.332037 -1.313985
2008-08-25 08:36:26 51°20.077 2°36.893 19.9914 0.059497 0.332037 -1.313985
2008-08-25 08:36:31 51°20.08 2°36.894 19.989 0.059497 0.332037 -1.279161
2008-08-25 08:36:36 51°20.082 2°36.894 19.9861 0.059497 0.332037 -1.279161
2008-08-25 08:36:40 51°20.083 2°36.895 19.9908 0.059497 0.332037 -1.313985
2008-08-25 08:36:46 51°20.086 2°36.896 19.9867 0.059497 0.332037 -1.279161
2008-08-25 08:36:51 51°20.088 2°36.897 19.9823 0.059497 0.332043 -1.313985
2008-08-25 08:36:56 51°20.089 2°36.899 19.9926 0.059497 0.332043 -1.313985
2008-08-25 08:37:00 51°20.091 2°36.9 19.9908 0.059497 0.332037 -1.279161
2008-08-25 08:37:05 51°20.093 2°36.901 20.0007 0.059497 0.332037 -1.279161
2008-08-25 08:37:11 51°20.095 2°36.902 19.9827 0.059497 0.332031 -1.313985
2008-08-25 08:37:16 51°20.097 2°36.904 20.0015 0.059497 0.332031 -1.313985
2008-08-25 08:37:21 51°20.098 2°36.905 19.999 0.059497 0.332031 -1.279161
2008-08-25 08:37:25 51°20.1 2°36.906 20.0043 0.059497 0.332031 -1.279161
2008-08-25 08:37:30 51°20.101 2°36.908 20.0043 0.059497 0.332031 -1.313985
2008-08-25 08:37:36 51°20.103 2°36.91 19.9864 0.059497 0.332031 -1.313985
2008-08-25 08:37:40 51°20.105 2°36.911 20.008 0.059497 0.332031 -1.279161
2008-08-25 08:37:45 51°20.106 2°36.912 19.9975 0.059497 0.332031 -1.313985
2008-08-25 08:37:51 51°20.108 2°36.914 20.0015 0.059497 0.332037 -1.279161
2008-08-25 08:37:56 51°20.11 2°36.915 20.0074 0.059497 0.332037 -1.279161
2008-08-25 08:38:01 51°20.111 2°36.917 20.0095 0.059497 0.332043 -1.313985
2008-08-25 08:38:05 51°20.113 2°36.918 20.0017 0.059497 0.332043 -1.313985
2008-08-25 08:38:11 51°20.115 2°36.92 20.0074 0.059497 0.332043 -1.279161
2008-08-25 08:38:16 51°20.116 2°36.922 20.0051 0.059497 0.332043 -1.313985
2008-08-25 08:38:20 51°20.117 2°36.924 20.0093 0.059497 0.332043 -1.279161
2008-08-25 08:38:25 51°20.119 2°36.925 20.001 0.059497 0.332043 -1.279161
2008-08-25 08:38:31 51°20.121 2°36.928 20.0068 0.059497 0.332037 -1.279161
2008-08-25 08:38:36 51°20.123 2°36.93 20.0147 0.059497 0.332037 -1.279161
2008-08-25 08:38:40 51°20.124 2°36.932 20.006 0.059497 0.332037 -1.279161
2008-08-25 08:38:46 51°20.126 2°36.934 20.0102 0.059497 0.332037 -1.313985
2008-08-25 08:38:51 51°20.128 2°36.936 20.0035 0.059497 0.332037 -1.279161
2008-08-25 08:38:56 51°20.129 2°36.938 20.0146 0.059497 0.332037 -1.279161